Time,TemperatureF,DewpointF,PressureIn,WindDirection,WindDirectionDegrees,WindSpeedMPH,WindSpeedGustMPH,Humidity,HourlyPrecipIn,Conditions,Clouds,dailyrainin,SoftwareType,DateUTC
2013-09-21 00:00:00,65.5,47.9,29.53,WSW,254,6.0,7.0,53,0.00,,,0.00,Wunderground v.1.15,2013-09-21 07:00:00,
2013-09-21 00:02:00,65.5,47.9,29.53,WSW,254,10.0,10.0,53,0.00,,,0.00,Wunderground v.1.15,2013-09-21 07:02:00,
2013-09-21 00:03:00,65.6,46.5,29.53,WSW,257,9.0,10.0,50,0.00,,,0.00,Wunderground v.1.15,2013-09-21 07:03:00,
2013-09-21 00:07:00,66.2,45.9,29.52,West,269,8.0,10.0,48,0.00,,,0.00,Wunderground v.1.15,2013-09-21 07:07:00,
2013-09-21 00:08:00,66.2,45.9,29.52,West,270,7.0,10.0,48,0.00,,,0.00,Wunderground v.1.15,2013-09-21 07:08:00,
2013-09-21 00:10:00,66.1,45.8,29.52,West,275,7.0,7.0,48,0.00,,,0.00,Wunderground v.1.15,2013-09-21 07:10:00,
2013-09-21 00:11:00,65.9,46.2,29.52,West,276,7.0,7.0,49,0.00,,,0.00,Wunderground v.1.15,2013-09-21 07:11:00,
2013-09-21 00:14:00,65.5,46.4,29.51,West,281,4.0,7.0,50,0.00,,,0.00,Wunderground v.1.15,2013-09-21 07:14:00,
2013-09-21 00:17:00,65.2,46.1,29.52,West,281,4.0,7.0,50,0.00,,,0.00,Wunderground v.1.15,2013-09-21 07:17:00,
2013-09-21 00:19:00,65.2,46.6,29.52,West,281,4.0,7.0,51,0.00,,,0.00,Wunderground v.1.15,2013-09-21 07:19:00,
2013-09-21 00:20:00,65.1,46.5,29.52,West,281,3.0,5.0,51,0.00,,,0.00,Wunderground v.1.15,2013-09-21 07:20:00,
2013-09-21 00:24:00,65.0,46.9,29.52,West,281,2.0,5.0,52,0.00,,,0.00,Wunderground v.1.15,2013-09-21 07:24:00,
2013-09-21 00:25:00,64.9,47.4,29.52,West,281,3.0,5.0,53,0.00,,,0.00,Wunderground v.1.15,2013-09-21 07:25:00,
2013-09-21 00:26:00,64.7,47.2,29.52,West,281,3.0,5.0,53,0.00,,,0.00,Wunderground v.1.15,2013-09-21 07:26:00,
2013-09-21 00:28:00,64.4,47.4,29.52,West,281,4.0,5.0,54,0.00,,,0.00,Wunderground v.1.15,2013-09-21 07:28:00,
2013-09-21 00:30:00,64.1,47.6,29.52,West,281,3.0,3.0,55,0.00,,,0.00,Wunderground v.1.15,2013-09-21 07:30:00,
2013-09-21 00:33:00,63.7,48.6,29.52,West,281,5.0,5.0,58,0.00,,,0.00,Wunderground v.1.15,2013-09-21 07:33:00,
2013-09-21 00:34:00,63.6,51.2,29.52,West,281,4.0,5.0,64,0.00,,,0.00,Wunderground v.1.15,2013-09-21 07:34:00,
2013-09-21 00:38:00,63.2,49.1,29.52,West,281,5.0,5.0,60,0.00,,,0.00,Wunderground v.1.15,2013-09-21 07:38:00,
2013-09-21 00:39:00,63.3,48.7,29.52,West,281,4.0,5.0,59,0.00,,,0.00,Wunderground v.1.15,2013-09-21 07:39:00,
2013-09-21 00:42:00,63.5,48.0,29.52,West,281,3.0,4.0,57,0.00,,,0.00,Wunderground v.1.15,2013-09-21 07:42:00,
2013-09-21 00:43:00,63.7,50.0,29.52,West,281,4.0,4.0,61,0.00,,,0.00,Wunderground v.1.15,2013-09-21 07:43:00,
2013-09-21 00:45:00,63.7,50.0,29.52,West,281,3.0,4.0,61,0.00,,,0.00,Wunderground v.1.15,2013-09-21 07:45:00,
2013-09-21 00:46:00,63.8,51.8,29.52,West,281,3.0,4.0,65,0.00,,,0.00,Wunderground v.1.15,2013-09-21 07:46:00,
2013-09-21 00:50:00,63.7,52.1,29.52,West,281,5.0,5.0,66,0.00,,,0.00,Wunderground v.1.15,2013-09-21 07:50:00,
2013-09-21 00:51:00,63.7,52.9,29.52,West,281,2.0,5.0,68,0.00,,,0.00,Wunderground v.1.15,2013-09-21 07:51:00,
2013-09-21 00:52:00,63.8,53.0,29.52,West,281,1.0,5.0,68,0.00,,,0.00,Wunderground v.1.15,2013-09-21 07:52:00,
2013-09-21 00:55:00,63.7,53.3,29.51,West,281,3.0,5.0,69,0.00,,,0.00,Wunderground v.1.15,2013-09-21 07:55:00,
2013-09-21 00:58:00,63.7,54.9,29.51,West,281,3.0,5.0,73,0.00,,,0.00,Wunderground v.1.15,2013-09-21 07:58:00,
2013-09-21 00:59:00,63.8,55.4,29.51,West,281,3.0,5.0,74,0.00,,,0.00,Wunderground v.1.15,2013-09-21 07:59:00,
2013-09-21 01:01:00,63.8,54.2,29.51,West,281,3.0,5.0,71,0.00,,,0.00,Wunderground v.1.15,2013-09-21 08:01:00,
2013-09-21 01:03:00,64.0,54.0,29.51,West,281,5.0,5.0,70,0.00,,,0.00,Wunderground v.1.15,2013-09-21 08:03:00,
2013-09-21 01:04:00,64.0,53.2,29.52,West,281,4.0,5.0,68,0.00,,,0.00,Wunderground v.1.15,2013-09-21 08:04:00,
2013-09-21 01:05:00,64.0,52.8,29.52,West,281,4.0,5.0,67,0.00,,,0.00,Wunderground v.1.15,2013-09-21 08:05:00,
2013-09-21 01:09:00,64.4,55.2,29.51,West,281,4.0,7.0,72,0.00,,,0.00,Wunderground v.1.15,2013-09-21 08:09:00,
2013-09-21 01:10:00,64.5,53.7,29.51,West,281,1.0,4.0,68,0.00,,,0.00,Wunderground v.1.15,2013-09-21 08:10:00,
2013-09-21 01:11:00,64.6,55.7,29.51,West,281,4.0,4.0,73,0.00,,,0.00,Wunderground v.1.15,2013-09-21 08:11:00,
2013-09-21 01:12:00,64.6,55.4,29.51,West,281,3.0,4.0,72,0.00,,,0.00,Wunderground v.1.15,2013-09-21 08:12:00,
2013-09-21 01:15:00,64.5,53.7,29.51,West,281,3.0,4.0,68,0.00,,,0.00,Wunderground v.1.15,2013-09-21 08:15:00,
2013-09-21 01:17:00,63.9,50.6,29.51,West,281,4.0,5.0,62,0.00,,,0.00,Wunderground v.1.15,2013-09-21 08:17:00,
2013-09-21 01:19:00,63.2,49.1,29.50,WNW,287,5.0,6.0,60,0.00,,,0.00,Wunderground v.1.15,2013-09-21 08:19:00,
2013-09-21 01:21:00,62.6,49.0,29.50,WNW,293,5.0,6.0,61,0.00,,,0.00,Wunderground v.1.15,2013-09-21 08:21:00,
2013-09-21 01:22:00,62.4,48.8,29.50,WNW,299,7.0,7.0,61,0.00,,,0.00,Wunderground v.1.15,2013-09-21 08:22:00,
2013-09-21 01:23:00,62.3,48.2,29.50,WNW,300,6.0,7.0,60,0.00,,,0.00,Wunderground v.1.15,2013-09-21 08:23:00,
2013-09-21 01:25:00,62.3,48.2,29.50,NW,305,6.0,7.0,60,0.00,,,0.00,Wunderground v.1.15,2013-09-21 08:25:00,
2013-09-21 01:26:00,62.4,48.3,29.50,NW,306,3.0,7.0,60,0.00,,,0.00,Wunderground v.1.15,2013-09-21 08:26:00,
2013-09-21 01:29:00,63.1,52.4,29.50,NW,306,3.0,7.0,68,0.00,,,0.00,Wunderground v.1.15,2013-09-21 08:29:00,
2013-09-21 01:31:00,63.7,49.1,29.50,NW,306,0.0,5.0,59,0.00,,,0.00,Wunderground v.1.15,2013-09-21 08:31:00,
2013-09-21 01:34:00,63.8,49.2,29.51,West,271,8.0,8.0,59,0.00,,,0.00,Wunderground v.1.15,2013-09-21 08:34:00,
2013-09-21 01:35:00,63.4,49.3,29.51,WSW,249,5.0,8.0,60,0.00,,,0.00,Wunderground v.1.15,2013-09-21 08:35:00,
2013-09-21 01:36:00,63.0,49.3,29.51,WSW,239,4.0,8.0,61,0.00,,,0.00,Wunderground v.1.15,2013-09-21 08:36:00,
2013-09-21 01:40:00,61.3,49.0,29.51,SW,215,4.0,4.0,64,0.00,,,0.00,Wunderground v.1.15,2013-09-21 08:40:00,
2013-09-21 01:41:00,61.0,48.7,29.51,SW,215,2.0,4.0,64,0.00,,,0.00,Wunderground v.1.15,2013-09-21 08:41:00,
2013-09-21 01:42:00,60.9,49.1,29.51,SW,215,1.0,4.0,65,0.00,,,0.00,Wunderground v.1.15,2013-09-21 08:42:00,
2013-09-21 01:46:00,60.7,48.4,29.51,SW,215,1.0,4.0,64,0.00,,,0.00,Wunderground v.1.15,2013-09-21 08:46:00,
2013-09-21 01:47:00,60.7,48.0,29.51,SW,215,2.0,4.0,63,0.00,,,0.00,Wunderground v.1.15,2013-09-21 08:47:00,
2013-09-21 01:48:00,60.9,47.8,29.51,SW,215,2.0,4.0,62,0.00,,,0.00,Wunderground v.1.15,2013-09-21 08:48:00,
2013-09-21 01:49:00,61.0,47.4,29.51,SW,215,3.0,4.0,61,0.00,,,0.00,Wunderground v.1.15,2013-09-21 08:49:00,
2013-09-21 01:51:00,61.6,47.6,29.51,SW,215,3.0,4.0,60,0.00,,,0.00,Wunderground v.1.15,2013-09-21 08:51:00,
2013-09-21 01:52:00,61.9,47.9,29.51,SW,215,5.0,5.0,60,0.00,,,0.00,Wunderground v.1.15,2013-09-21 08:52:00,
2013-09-21 01:53:00,62.2,47.7,29.51,SW,215,3.0,5.0,59,0.00,,,0.00,Wunderground v.1.15,2013-09-21 08:53:00,
2013-09-21 01:54:00,62.5,48.0,29.51,SW,215,4.0,5.0,59,0.00,,,0.00,Wunderground v.1.15,2013-09-21 08:54:00,
2013-09-21 01:56:00,62.8,47.8,29.51,SW,215,1.0,5.0,58,0.00,,,0.00,Wunderground v.1.15,2013-09-21 08:56:00,
2013-09-21 01:57:00,62.9,49.2,29.51,SW,215,2.0,5.0,61,0.00,,,0.00,Wunderground v.1.15,2013-09-21 08:57:00,
2013-09-21 01:59:00,63.0,48.9,29.51,SW,215,1.0,5.0,60,0.00,,,0.00,Wunderground v.1.15,2013-09-21 08:59:00,
2013-09-21 02:01:00,63.3,48.7,29.51,SW,215,2.0,3.0,59,0.00,,,0.00,Wunderground v.1.15,2013-09-21 09:01:00,
2013-09-21 02:02:00,63.3,48.7,29.51,SW,215,2.0,3.0,59,0.00,,,0.00,Wunderground v.1.15,2013-09-21 09:02:00,
2013-09-21 02:04:00,63.2,48.2,29.51,SW,215,3.0,5.0,58,0.00,,,0.00,Wunderground v.1.15,2013-09-21 09:04:00,
2013-09-21 02:07:00,63.0,48.0,29.51,SW,215,2.0,5.0,58,0.00,,,0.00,Wunderground v.1.15,2013-09-21 09:07:00,
2013-09-21 02:09:00,62.8,47.8,29.51,SW,215,2.0,5.0,58,0.00,,,0.00,Wunderground v.1.15,2013-09-21 09:09:00,
2013-09-21 02:10:00,62.7,48.2,29.51,SW,215,3.0,5.0,59,0.00,,,0.00,Wunderground v.1.15,2013-09-21 09:10:00,
2013-09-21 02:12:00,62.5,48.0,29.52,SW,215,2.0,3.0,59,0.00,,,0.00,Wunderground v.1.15,2013-09-21 09:12:00,
2013-09-21 02:13:00,62.5,48.0,29.51,SW,215,3.0,3.0,59,0.00,,,0.00,Wunderground v.1.15,2013-09-21 09:13:00,
2013-09-21 02:14:00,62.3,48.2,29.52,SW,215,1.0,3.0,60,0.00,,,0.00,Wunderground v.1.15,2013-09-21 09:14:00,
2013-09-21 02:15:00,62.3,48.2,29.52,SW,215,0.0,3.0,60,0.00,,,0.00,Wunderground v.1.15,2013-09-21 09:15:00,
2013-09-21 02:17:00,62.0,48.4,29.52,SW,215,1.0,3.0,61,0.00,,,0.00,Wunderground v.1.15,2013-09-21 09:17:00,
2013-09-21 02:18:00,61.8,48.2,29.52,SW,215,1.0,3.0,61,0.00,,,0.00,Wunderground v.1.15,2013-09-21 09:18:00,
2013-09-21 02:19:00,61.7,48.5,29.52,SW,215,1.0,3.0,62,0.00,,,0.00,Wunderground v.1.15,2013-09-21 09:19:00,
2013-09-21 02:20:00,61.6,48.4,29.52,SW,215,1.0,1.0,62,0.00,,,0.00,Wunderground v.1.15,2013-09-21 09:20:00,
2013-09-21 02:22:00,61.3,48.6,29.52,SW,215,1.0,3.0,63,0.00,,,0.00,Wunderground v.1.15,2013-09-21 09:22:00,
2013-09-21 02:23:00,61.2,48.5,29.52,SW,215,3.0,3.0,63,0.00,,,0.00,Wunderground v.1.15,2013-09-21 09:23:00,
2013-09-21 02:25:00,61.0,48.3,29.53,SW,215,2.0,3.0,63,0.00,,,0.00,Wunderground v.1.15,2013-09-21 09:25:00,
2013-09-21 02:27:00,60.7,48.4,29.53,SW,215,2.0,4.0,64,0.00,,,0.00,Wunderground v.1.15,2013-09-21 09:27:00,
2013-09-21 02:28:00,60.7,48.4,29.53,SW,215,2.0,4.0,64,0.00,,,0.00,Wunderground v.1.15,2013-09-21 09:28:00,
2013-09-21 02:29:00,60.5,48.3,29.53,SW,215,0.0,4.0,64,0.00,,,0.00,Wunderground v.1.15,2013-09-21 09:29:00,
2013-09-21 02:30:00,60.4,48.6,29.53,SW,215,0.0,2.0,65,0.00,,,0.00,Wunderground v.1.15,2013-09-21 09:30:00,
2013-09-21 02:32:00,60.0,48.6,29.53,SW,215,0.0,2.0,66,0.00,,,0.00,Wunderground v.1.15,2013-09-21 09:32:00,
2013-09-21 02:33:00,60.0,48.6,29.53,SW,215,0.0,2.0,66,0.00,,,0.00,Wunderground v.1.15,2013-09-21 09:33:00,
2013-09-21 02:34:00,59.9,48.5,29.52,SW,215,0.0,2.0,66,0.00,,,0.00,Wunderground v.1.15,2013-09-21 09:34:00,
2013-09-21 02:35:00,59.9,48.5,29.52,SW,215,2.0,3.0,66,0.00,,,0.00,Wunderground v.1.15,2013-09-21 09:35:00,
2013-09-21 02:36:00,59.9,48.5,29.52,SW,215,2.0,3.0,66,0.00,,,0.00,Wunderground v.1.15,2013-09-21 09:36:00,
2013-09-21 02:37:00,59.9,48.9,29.53,SW,215,2.0,3.0,67,0.00,,,0.00,Wunderground v.1.15,2013-09-21 09:37:00,
2013-09-21 02:38:00,59.9,48.9,29.53,SW,215,1.0,3.0,67,0.00,,,0.00,Wunderground v.1.15,2013-09-21 09:38:00,
2013-09-21 02:39:00,60.0,49.4,29.53,SW,215,0.0,3.0,68,0.00,,,0.00,Wunderground v.1.15,2013-09-21 09:39:00,
2013-09-21 02:40:00,60.0,49.4,29.52,SW,215,0.0,1.0,68,0.00,,,0.00,Wunderground v.1.15,2013-09-21 09:40:00,
2013-09-21 02:41:00,60.0,49.4,29.52,SW,215,0.0,1.0,68,0.00,,,0.00,Wunderground v.1.15,2013-09-21 09:41:00,
2013-09-21 02:42:00,59.9,49.7,29.53,SW,215,0.0,1.0,69,0.00,,,0.00,Wunderground v.1.15,2013-09-21 09:42:00,
2013-09-21 02:43:00,59.8,49.6,29.53,SW,215,0.0,1.0,69,0.00,,,0.00,Wunderground v.1.15,2013-09-21 09:43:00,
2013-09-21 02:45:00,59.7,49.5,29.53,SW,215,0.0,1.0,69,0.00,,,0.00,Wunderground v.1.15,2013-09-21 09:45:00,
2013-09-21 02:46:00,59.6,49.4,29.53,SW,215,1.0,2.0,69,0.00,,,0.00,Wunderground v.1.15,2013-09-21 09:46:00,
2013-09-21 02:48:00,59.5,50.1,29.53,SW,215,2.0,2.0,71,0.00,,,0.00,Wunderground v.1.15,2013-09-21 09:48:00,
2013-09-21 02:51:00,59.4,51.1,29.52,SW,215,1.0,3.0,74,0.00,,,0.00,Wunderground v.1.15,2013-09-21 09:51:00,
2013-09-21 02:53:00,59.3,50.3,29.52,SW,215,2.0,3.0,72,0.00,,,0.00,Wunderground v.1.15,2013-09-21 09:53:00,
2013-09-21 02:56:00,59.3,51.0,29.52,SW,215,0.0,3.0,74,0.00,,,0.00,Wunderground v.1.15,2013-09-21 09:56:00,
2013-09-21 02:57:00,59.4,50.4,29.52,SW,215,0.0,3.0,72,0.00,,,0.00,Wunderground v.1.15,2013-09-21 09:57:00,
2013-09-21 02:58:00,59.5,50.5,29.52,SW,215,1.0,3.0,72,0.00,,,0.00,Wunderground v.1.15,2013-09-21 09:58:00,
2013-09-21 02:59:00,59.6,50.6,29.52,SW,215,1.0,3.0,72,0.00,,,0.00,Wunderground v.1.15,2013-09-21 09:59:00,
2013-09-21 03:01:00,59.8,50.4,29.52,SW,215,0.0,1.0,71,0.00,,,0.00,Wunderground v.1.15,2013-09-21 10:01:00,
2013-09-21 03:02:00,59.7,49.9,29.53,SW,215,1.0,2.0,70,0.00,,,0.00,Wunderground v.1.15,2013-09-21 10:02:00,
2013-09-21 03:03:00,59.8,50.0,29.53,SW,215,1.0,2.0,70,0.00,,,0.00,Wunderground v.1.15,2013-09-21 10:03:00,
2013-09-21 03:04:00,59.9,52.0,29.53,SW,215,3.0,3.0,75,0.00,,,0.00,Wunderground v.1.15,2013-09-21 10:04:00,
2013-09-21 03:06:00,59.8,50.0,29.53,SW,215,2.0,3.0,70,0.00,,,0.00,Wunderground v.1.15,2013-09-21 10:06:00,
2013-09-21 03:07:00,59.9,51.2,29.52,SW,215,2.0,3.0,73,0.00,,,0.00,Wunderground v.1.15,2013-09-21 10:07:00,
2013-09-21 03:08:00,60.2,52.2,29.53,SW,215,3.0,3.0,75,0.00,,,0.00,Wunderground v.1.15,2013-09-21 10:08:00,
2013-09-21 03:09:00,60.3,52.0,29.53,SW,215,0.0,3.0,74,0.00,,,0.00,Wunderground v.1.15,2013-09-21 10:09:00,
2013-09-21 03:11:00,60.4,50.6,29.53,SW,215,2.0,3.0,70,0.00,,,0.00,Wunderground v.1.15,2013-09-21 10:11:00,
2013-09-21 03:12:00,60.4,50.2,29.53,SW,215,1.0,3.0,69,0.00,,,0.00,Wunderground v.1.15,2013-09-21 10:12:00,
2013-09-21 03:13:00,60.3,50.1,29.53,SW,215,2.0,3.0,69,0.00,,,0.00,Wunderground v.1.15,2013-09-21 10:13:00,
2013-09-21 03:15:00,60.1,49.9,29.53,SW,215,2.0,3.0,69,0.00,,,0.00,Wunderground v.1.15,2013-09-21 10:15:00,
2013-09-21 03:16:00,59.9,49.3,29.53,SW,215,2.0,3.0,68,0.00,,,0.00,Wunderground v.1.15,2013-09-21 10:16:00,
2013-09-21 03:17:00,59.9,48.9,29.53,SW,215,1.0,3.0,67,0.00,,,0.00,Wunderground v.1.15,2013-09-21 10:17:00,
2013-09-21 03:18:00,59.9,48.9,29.53,SW,215,1.0,3.0,67,0.00,,,0.00,Wunderground v.1.15,2013-09-21 10:18:00,
2013-09-21 03:19:00,60.0,48.6,29.54,SW,215,1.0,3.0,66,0.00,,,0.00,Wunderground v.1.15,2013-09-21 10:19:00,
2013-09-21 03:20:00,60.0,49.0,29.54,SW,215,0.0,3.0,67,0.00,,,0.00,Wunderground v.1.15,2013-09-21 10:20:00,
2013-09-21 03:21:00,60.2,49.2,29.54,SW,215,0.0,2.0,67,0.00,,,0.00,Wunderground v.1.15,2013-09-21 10:21:00,
2013-09-21 03:22:00,60.2,49.2,29.54,SW,215,0.0,2.0,67,0.00,,,0.00,Wunderground v.1.15,2013-09-21 10:22:00,
2013-09-21 03:23:00,60.2,48.8,29.54,SW,215,0.0,2.0,66,0.00,,,0.00,Wunderground v.1.15,2013-09-21 10:23:00,
2013-09-21 03:24:00,60.2,48.8,29.54,SW,215,1.0,2.0,66,0.00,,,0.00,Wunderground v.1.15,2013-09-21 10:24:00,
2013-09-21 03:25:00,60.2,48.8,29.53,SW,215,2.0,2.0,66,0.00,,,0.00,Wunderground v.1.15,2013-09-21 10:25:00,
2013-09-21 03:26:00,60.3,48.9,29.54,SW,215,0.0,2.0,66,0.00,,,0.00,Wunderground v.1.15,2013-09-21 10:26:00,
2013-09-21 03:27:00,60.3,48.9,29.54,SW,215,0.0,2.0,66,0.00,,,0.00,Wunderground v.1.15,2013-09-21 10:27:00,
2013-09-21 03:28:00,60.4,48.6,29.54,SW,215,0.0,2.0,65,0.00,,,0.00,Wunderground v.1.15,2013-09-21 10:28:00,
2013-09-21 03:29:00,60.3,48.5,29.54,SW,215,0.0,2.0,65,0.00,,,0.00,Wunderground v.1.15,2013-09-21 10:29:00,
2013-09-21 03:30:00,60.4,48.6,29.53,SW,215,2.0,2.0,65,0.00,,,0.00,Wunderground v.1.15,2013-09-21 10:30:00,
2013-09-21 03:31:00,60.5,49.5,29.53,SW,215,2.0,2.0,67,0.00,,,0.00,Wunderground v.1.15,2013-09-21 10:31:00,
2013-09-21 03:33:00,60.5,49.1,29.53,SW,215,1.0,2.0,66,0.00,,,0.00,Wunderground v.1.15,2013-09-21 10:33:00,
2013-09-21 03:34:00,60.5,49.5,29.53,SW,215,2.0,2.0,67,0.00,,,0.00,Wunderground v.1.15,2013-09-21 10:34:00,
2013-09-21 03:35:00,60.5,50.3,29.53,SW,215,3.0,3.0,69,0.00,,,0.00,Wunderground v.1.15,2013-09-21 10:35:00,
2013-09-21 03:36:00,60.3,50.1,29.53,SW,215,3.0,4.0,69,0.00,,,0.00,Wunderground v.1.15,2013-09-21 10:36:00,
2013-09-21 03:38:00,60.0,50.2,29.53,SW,215,3.0,4.0,70,0.00,,,0.00,Wunderground v.1.15,2013-09-21 10:38:00,
2013-09-21 03:39:00,59.9,50.1,29.53,SW,215,2.0,4.0,70,0.00,,,0.00,Wunderground v.1.15,2013-09-21 10:39:00,
2013-09-21 03:40:00,59.7,50.7,29.53,SW,214,3.0,3.0,72,0.00,,,0.00,Wunderground v.1.15,2013-09-21 10:40:00,
2013-09-21 03:41:00,59.6,50.2,29.53,SSW,213,2.0,4.0,71,0.00,,,0.00,Wunderground v.1.15,2013-09-21 10:41:00,
2013-09-21 03:43:00,59.5,50.1,29.53,SSW,213,5.0,5.0,71,0.00,,,0.00,Wunderground v.1.15,2013-09-21 10:43:00,
2013-09-21 03:44:00,59.5,49.3,29.53,SSW,212,5.0,6.0,69,0.00,,,0.00,Wunderground v.1.15,2013-09-21 10:44:00,
2013-09-21 03:45:00,59.6,48.2,29.53,SSW,211,0.0,7.0,66,0.00,,,0.00,Wunderground v.1.15,2013-09-21 10:45:00,
2013-09-21 03:46:00,59.9,48.1,29.53,SSW,211,2.0,7.0,65,0.00,,,0.00,Wunderground v.1.15,2013-09-21 10:46:00,
2013-09-21 03:48:00,60.4,47.7,29.53,SSW,211,3.0,7.0,63,0.00,,,0.00,Wunderground v.1.15,2013-09-21 10:48:00,
2013-09-21 03:49:00,60.5,47.8,29.53,SSW,211,3.0,7.0,63,0.00,,,0.00,Wunderground v.1.15,2013-09-21 10:49:00,
2013-09-21 03:50:00,60.7,47.6,29.53,SSW,211,2.0,3.0,62,0.00,,,0.00,Wunderground v.1.15,2013-09-21 10:50:00,
2013-09-21 03:51:00,60.9,47.8,29.53,SSW,211,2.0,3.0,62,0.00,,,0.00,Wunderground v.1.15,2013-09-21 10:51:00,
2013-09-21 03:54:00,61.3,47.7,29.53,SSW,211,3.0,4.0,61,0.00,,,0.00,Wunderground v.1.15,2013-09-21 10:54:00,
2013-09-21 03:55:00,61.2,47.6,29.53,SSW,211,2.0,4.0,61,0.00,,,0.00,Wunderground v.1.15,2013-09-21 10:55:00,
2013-09-21 03:56:00,61.4,47.8,29.53,SSW,211,1.0,4.0,61,0.00,,,0.00,Wunderground v.1.15,2013-09-21 10:56:00,
2013-09-21 03:57:00,61.4,47.4,29.53,SSW,211,0.0,4.0,60,0.00,,,0.00,Wunderground v.1.15,2013-09-21 10:57:00,
2013-09-21 04:00:00,61.6,49.3,29.53,SSW,211,0.0,4.0,64,0.00,,,0.00,Wunderground v.1.15,2013-09-21 11:00:00,
2013-09-21 04:01:00,61.4,49.1,29.53,SSW,211,1.0,2.0,64,0.00,,,0.00,Wunderground v.1.15,2013-09-21 11:01:00,
2013-09-21 04:02:00,61.3,48.6,29.53,SSW,211,1.0,2.0,63,0.00,,,0.00,Wunderground v.1.15,2013-09-21 11:02:00,
2013-09-21 04:05:00,61.1,48.4,29.53,SSW,211,0.0,2.0,63,0.00,,,0.00,Wunderground v.1.15,2013-09-21 11:05:00,
2013-09-21 04:06:00,61.1,48.0,29.53,SSW,211,0.0,2.0,62,0.00,,,0.00,Wunderground v.1.15,2013-09-21 11:06:00,
2013-09-21 04:07:00,61.1,49.2,29.53,SSW,211,0.0,2.0,65,0.00,,,0.00,Wunderground v.1.15,2013-09-21 11:07:00,
2013-09-21 04:10:00,61.0,50.0,29.53,SSW,211,2.0,3.0,67,0.00,,,0.00,Wunderground v.1.15,2013-09-21 11:10:00,
2013-09-21 04:11:00,60.8,49.8,29.53,SSW,211,1.0,2.0,67,0.00,,,0.00,Wunderground v.1.15,2013-09-21 11:11:00,
2013-09-21 04:12:00,60.6,49.2,29.53,SSW,211,1.0,3.0,66,0.00,,,0.00,Wunderground v.1.15,2013-09-21 11:12:00,
2013-09-21 04:15:00,60.4,49.0,29.53,SSW,211,0.0,3.0,66,0.00,,,0.00,Wunderground v.1.15,2013-09-21 11:15:00,
2013-09-21 04:16:00,60.4,49.8,29.53,SSW,211,0.0,3.0,68,0.00,,,0.00,Wunderground v.1.15,2013-09-21 11:16:00,
2013-09-21 04:17:00,60.4,49.4,29.53,SSW,211,0.0,3.0,67,0.00,,,0.00,Wunderground v.1.15,2013-09-21 11:17:00,
2013-09-21 04:20:00,60.3,48.1,29.53,SSW,211,1.0,1.0,64,0.00,,,0.00,Wunderground v.1.15,2013-09-21 11:20:00,
2013-09-21 04:21:00,60.4,48.2,29.53,SSW,211,3.0,4.0,64,0.00,,,0.00,Wunderground v.1.15,2013-09-21 11:21:00,
2013-09-21 04:22:00,60.4,47.7,29.54,SSW,211,4.0,5.0,63,0.00,,,0.00,Wunderground v.1.15,2013-09-21 11:22:00,
2013-09-21 04:25:00,60.6,47.9,29.54,SSW,211,2.0,5.0,63,0.00,,,0.00,Wunderground v.1.15,2013-09-21 11:25:00,
2013-09-21 04:26:00,60.7,48.0,29.53,SSW,211,1.0,5.0,63,0.00,,,0.00,Wunderground v.1.15,2013-09-21 11:26:00,
2013-09-21 04:27:00,60.7,48.0,29.53,SSW,211,2.0,5.0,63,0.00,,,0.00,Wunderground v.1.15,2013-09-21 11:27:00,
2013-09-21 04:28:00,60.8,48.1,29.53,SSW,211,4.0,6.0,63,0.00,,,0.00,Wunderground v.1.15,2013-09-21 11:28:00,
2013-09-21 04:30:00,61.0,47.9,29.54,SSW,211,2.0,4.0,62,0.00,,,0.00,Wunderground v.1.15,2013-09-21 11:30:00,
2013-09-21 04:31:00,61.0,47.9,29.54,SSW,211,1.0,4.0,62,0.00,,,0.00,Wunderground v.1.15,2013-09-21 11:31:00,
2013-09-21 04:32:00,61.0,47.9,29.54,SSW,211,2.0,4.0,62,0.00,,,0.00,Wunderground v.1.15,2013-09-21 11:32:00,
2013-09-21 04:33:00,61.1,47.5,29.54,SSW,211,0.0,4.0,61,0.00,,,0.00,Wunderground v.1.15,2013-09-21 11:33:00,
2013-09-21 04:36:00,61.2,47.6,29.54,SSW,211,0.0,4.0,61,0.00,,,0.00,Wunderground v.1.15,2013-09-21 11:36:00,
2013-09-21 04:37:00,61.2,48.1,29.54,SSW,211,4.0,5.0,62,0.00,,,0.00,Wunderground v.1.15,2013-09-21 11:37:00,
2013-09-21 04:38:00,61.3,50.6,29.53,SW,235,3.0,7.0,68,0.00,,,0.00,Wunderground v.1.15,2013-09-21 11:38:00,
2013-09-21 04:41:00,61.6,50.9,29.53,WSW,238,0.0,2.0,68,0.00,,,0.00,Wunderground v.1.15,2013-09-21 11:41:00,
2013-09-21 04:42:00,61.6,49.3,29.53,WSW,238,0.0,2.0,64,0.00,,,0.00,Wunderground v.1.15,2013-09-21 11:42:00,
2013-09-21 04:43:00,61.6,49.3,29.53,WSW,238,0.0,2.0,64,0.00,,,0.00,Wunderground v.1.15,2013-09-21 11:43:00,
2013-09-21 04:46:00,61.4,49.5,29.53,WSW,238,3.0,3.0,65,0.00,,,0.00,Wunderground v.1.15,2013-09-21 11:46:00,
2013-09-21 04:47:00,61.3,50.2,29.53,WSW,238,4.0,4.0,67,0.00,,,0.00,Wunderground v.1.15,2013-09-21 11:47:00,
2013-09-21 04:48:00,61.1,50.1,29.53,WSW,240,2.0,4.0,67,0.00,,,0.00,Wunderground v.1.15,2013-09-21 11:48:00,
2013-09-21 04:51:00,60.6,49.6,29.53,WSW,254,4.0,5.0,67,0.00,,,0.00,Wunderground v.1.15,2013-09-21 11:51:00,
2013-09-21 04:52:00,60.5,50.3,29.53,WSW,257,2.0,6.0,69,0.00,,,0.00,Wunderground v.1.15,2013-09-21 11:52:00,
2013-09-21 04:53:00,60.6,51.5,29.53,WSW,257,1.0,6.0,72,0.00,,,0.00,Wunderground v.1.15,2013-09-21 11:53:00,
2013-09-21 04:56:00,60.9,52.2,29.53,WSW,257,1.0,6.0,73,0.00,,,0.00,Wunderground v.1.15,2013-09-21 11:56:00,
2013-09-21 04:57:00,60.8,49.8,29.53,WSW,257,0.0,6.0,67,0.00,,,0.00,Wunderground v.1.15,2013-09-21 11:57:00,
2013-09-21 04:58:00,60.8,49.4,29.53,WSW,257,0.0,6.0,66,0.00,,,0.00,Wunderground v.1.15,2013-09-21 11:58:00,
2013-09-21 05:01:00,60.7,48.4,29.53,WSW,257,0.0,2.0,64,0.00,,,0.00,Wunderground v.1.15,2013-09-21 12:01:00,
2013-09-21 05:02:00,60.8,48.5,29.53,WSW,257,0.0,2.0,64,0.00,,,0.00,Wunderground v.1.15,2013-09-21 12:02:00,
2013-09-21 05:03:00,60.7,48.4,29.53,WSW,257,0.0,2.0,64,0.00,,,0.00,Wunderground v.1.15,2013-09-21 12:03:00,
2013-09-21 05:06:00,60.7,48.4,29.53,WSW,257,0.0,2.0,64,0.00,,,0.00,Wunderground v.1.15,2013-09-21 12:06:00,
2013-09-21 05:08:00,60.7,48.4,29.53,WSW,257,0.0,2.0,64,0.00,,,0.00,Wunderground v.1.15,2013-09-21 12:08:00,
2013-09-21 05:12:00,60.5,47.8,29.53,WSW,257,0.0,0.0,63,0.00,,,0.00,Wunderground v.1.15,2013-09-21 12:12:00,
2013-09-21 05:13:00,60.5,48.3,29.53,WSW,257,0.0,1.0,64,0.00,,,0.00,Wunderground v.1.15,2013-09-21 12:13:00,
2013-09-21 05:14:00,60.5,48.3,29.53,WSW,257,0.0,1.0,64,0.00,,,0.00,Wunderground v.1.15,2013-09-21 12:14:00,
2013-09-21 05:17:00,60.4,47.7,29.53,WSW,257,1.0,2.0,63,0.00,,,0.00,Wunderground v.1.15,2013-09-21 12:17:00,
2013-09-21 05:18:00,60.4,48.2,29.53,WSW,257,0.0,2.0,64,0.00,,,0.00,Wunderground v.1.15,2013-09-21 12:18:00,
2013-09-21 05:19:00,60.4,48.2,29.53,WSW,257,0.0,2.0,64,0.00,,,0.00,Wunderground v.1.15,2013-09-21 12:19:00,
2013-09-21 05:22:00,60.4,48.2,29.53,WSW,257,0.0,1.0,64,0.00,,,0.00,Wunderground v.1.15,2013-09-21 12:22:00,
2013-09-21 05:23:00,60.4,48.2,29.53,WSW,257,2.0,2.0,64,0.00,,,0.00,Wunderground v.1.15,2013-09-21 12:23:00,
2013-09-21 05:24:00,60.4,48.2,29.53,WSW,257,3.0,4.0,64,0.00,,,0.00,Wunderground v.1.15,2013-09-21 12:24:00,
2013-09-21 05:27:00,60.3,48.1,29.54,WSW,257,4.0,4.0,64,0.00,,,0.00,Wunderground v.1.15,2013-09-21 12:27:00,
2013-09-21 05:28:00,60.2,48.0,29.54,WSW,257,4.0,5.0,64,0.00,,,0.00,Wunderground v.1.15,2013-09-21 12:28:00,
2013-09-21 05:29:00,60.2,48.0,29.54,WSW,257,4.0,5.0,64,0.00,,,0.00,Wunderground v.1.15,2013-09-21 12:29:00,
2013-09-21 05:32:00,60.0,48.2,29.54,WSW,257,3.0,5.0,65,0.00,,,0.00,Wunderground v.1.15,2013-09-21 12:32:00,
2013-09-21 05:34:00,59.7,48.3,29.54,WSW,257,2.0,5.0,66,0.00,,,0.00,Wunderground v.1.15,2013-09-21 12:34:00,
2013-09-21 05:37:00,59.4,48.0,29.54,WSW,257,0.0,5.0,66,0.00,,,0.00,Wunderground v.1.15,2013-09-21 12:37:00,
2013-09-21 05:39:00,59.3,47.9,29.54,WSW,257,0.0,5.0,66,0.00,,,0.00,Wunderground v.1.15,2013-09-21 12:39:00,
2013-09-21 05:42:00,59.4,48.0,29.54,WSW,257,0.0,2.0,66,0.00,,,0.00,Wunderground v.1.15,2013-09-21 12:42:00,
2013-09-21 05:44:00,59.4,48.0,29.55,WSW,257,0.0,2.0,66,0.00,,,0.00,Wunderground v.1.15,2013-09-21 12:44:00,
2013-09-21 05:45:00,59.5,49.7,29.55,WSW,257,1.0,2.0,70,0.00,,,0.00,Wunderground v.1.15,2013-09-21 12:45:00,
2013-09-21 05:48:00,59.4,48.8,29.55,WSW,257,0.0,2.0,68,0.00,,,0.00,Wunderground v.1.15,2013-09-21 12:48:00,
2013-09-21 05:49:00,59.4,48.4,29.55,WSW,257,0.0,2.0,67,0.00,,,0.00,Wunderground v.1.15,2013-09-21 12:49:00,
2013-09-21 05:50:00,59.4,48.0,29.55,WSW,257,2.0,2.0,66,0.00,,,0.00,Wunderground v.1.15,2013-09-21 12:50:00,
2013-09-21 05:53:00,59.5,48.1,29.54,WSW,257,2.0,4.0,66,0.00,,,0.00,Wunderground v.1.15,2013-09-21 12:53:00,
2013-09-21 05:54:00,59.6,47.8,29.54,WSW,257,0.0,4.0,65,0.00,,,0.00,Wunderground v.1.15,2013-09-21 12:54:00,
2013-09-21 05:55:00,59.6,47.8,29.54,WSW,257,0.0,4.0,65,0.00,,,0.00,Wunderground v.1.15,2013-09-21 12:55:00,
2013-09-21 05:58:00,60.1,51.8,29.54,WSW,257,1.0,4.0,74,0.00,,,0.00,Wunderground v.1.15,2013-09-21 12:58:00,
2013-09-21 05:59:00,60.3,52.7,29.54,WSW,257,3.0,4.0,76,0.00,,,0.00,Wunderground v.1.15,2013-09-21 12:59:00,
2013-09-21 06:00:00,60.2,51.5,29.54,WSW,257,2.0,2.0,73,0.00,,,0.00,Wunderground v.1.15,2013-09-21 13:00:00,
2013-09-21 06:01:00,60.2,51.5,29.54,WSW,257,2.0,3.0,73,0.00,,,0.00,Wunderground v.1.15,2013-09-21 13:01:00,
2013-09-21 06:03:00,59.7,49.1,29.54,WSW,257,2.0,3.0,68,0.00,,,0.00,Wunderground v.1.15,2013-09-21 13:03:00,
2013-09-21 06:04:00,59.5,48.9,29.54,West,259,2.0,4.0,68,0.00,,,0.00,Wunderground v.1.15,2013-09-21 13:04:00,
2013-09-21 06:05:00,59.2,48.6,29.54,North,11,2.0,7.0,68,0.00,,,0.00,Wunderground v.1.15,2013-09-21 13:05:00,
2013-09-21 06:06:00,59.2,48.6,29.54,North,11,2.0,7.0,68,0.00,,,0.00,Wunderground v.1.15,2013-09-21 13:06:00,
2013-09-21 06:08:00,58.6,48.8,29.54,North,11,2.0,7.0,70,0.00,,,0.00,Wunderground v.1.15,2013-09-21 13:08:00,
2013-09-21 06:09:00,58.4,49.0,29.55,North,11,2.0,7.0,71,0.00,,,0.00,Wunderground v.1.15,2013-09-21 13:09:00,
2013-09-21 06:11:00,57.9,48.6,29.55,North,11,1.0,2.0,71,0.00,,,0.00,Wunderground v.1.15,2013-09-21 13:11:00,
2013-09-21 06:12:00,57.6,48.6,29.55,North,11,1.0,3.0,72,0.00,,,0.00,Wunderground v.1.15,2013-09-21 13:12:00,
2013-09-21 06:13:00,57.5,48.5,29.55,North,11,2.0,3.0,72,0.00,,,0.00,Wunderground v.1.15,2013-09-21 13:13:00,
2013-09-21 06:15:00,57.2,48.6,29.55,North,11,2.0,3.0,73,0.00,,,0.00,Wunderground v.1.15,2013-09-21 13:15:00,
2013-09-21 06:16:00,57.1,48.5,29.55,North,11,1.0,3.0,73,0.00,,,0.00,Wunderground v.1.15,2013-09-21 13:16:00,
2013-09-21 06:17:00,57.0,48.8,29.55,North,11,1.0,3.0,74,0.00,,,0.00,Wunderground v.1.15,2013-09-21 13:17:00,
2013-09-21 06:18:00,56.9,48.3,29.55,North,11,1.0,3.0,73,0.00,,,0.00,Wunderground v.1.15,2013-09-21 13:18:00,
2013-09-21 06:20:00,57.1,48.5,29.55,North,11,0.0,2.0,73,0.00,,,0.00,Wunderground v.1.15,2013-09-21 13:20:00,
2013-09-21 06:21:00,57.1,48.2,29.55,North,11,0.0,2.0,72,0.00,,,0.00,Wunderground v.1.15,2013-09-21 13:21:00,
2013-09-21 06:22:00,57.2,48.3,29.55,North,11,0.0,2.0,72,0.00,,,0.00,Wunderground v.1.15,2013-09-21 13:22:00,
2013-09-21 06:23:00,57.3,48.3,29.55,North,11,0.0,2.0,72,0.00,,,0.00,Wunderground v.1.15,2013-09-21 13:23:00,
2013-09-21 06:25:00,57.3,48.3,29.55,North,11,0.0,2.0,72,0.00,,,0.00,Wunderground v.1.15,2013-09-21 13:25:00,
2013-09-21 06:26:00,57.2,48.3,29.55,North,11,3.0,3.0,72,0.00,,,0.00,Wunderground v.1.15,2013-09-21 13:26:00,
2013-09-21 06:27:00,57.2,48.6,29.55,North,11,3.0,3.0,73,0.00,,,0.00,Wunderground v.1.15,2013-09-21 13:27:00,
2013-09-21 06:28:00,57.0,48.8,29.55,North,11,2.0,3.0,74,0.00,,,0.00,Wunderground v.1.15,2013-09-21 13:28:00,
2013-09-21 06:30:00,56.7,48.1,29.55,North,11,3.0,3.0,73,0.00,,,0.00,Wunderground v.1.15,2013-09-21 13:30:00,
2013-09-21 06:31:00,56.6,48.0,29.55,North,11,5.0,5.0,73,0.00,,,0.00,Wunderground v.1.15,2013-09-21 13:31:00,
2013-09-21 06:32:00,56.5,48.3,29.55,NNE,14,4.0,5.0,74,0.00,,,0.00,Wunderground v.1.15,2013-09-21 13:32:00,
2013-09-21 06:33:00,56.4,48.2,29.55,NNE,19,3.0,5.0,74,0.00,,,0.00,Wunderground v.1.15,2013-09-21 13:33:00,
2013-09-21 06:35:00,56.6,48.4,29.55,NNE,19,3.0,5.0,74,0.00,,,0.00,Wunderground v.1.15,2013-09-21 13:35:00,
2013-09-21 06:36:00,56.6,48.4,29.55,NNE,25,4.0,5.0,74,0.00,,,0.00,Wunderground v.1.15,2013-09-21 13:36:00,
2013-09-21 06:37:00,56.6,48.0,29.55,NNE,28,5.0,5.0,73,0.00,,,0.00,Wunderground v.1.15,2013-09-21 13:37:00,
2013-09-21 06:38:00,56.6,48.0,29.55,NNE,30,4.0,5.0,73,0.00,,,0.00,Wunderground v.1.15,2013-09-21 13:38:00,
2013-09-21 06:39:00,56.6,48.0,29.55,NNE,30,4.0,5.0,73,0.00,,,0.00,Wunderground v.1.15,2013-09-21 13:39:00,
2013-09-21 06:40:00,56.8,48.2,29.55,NNE,33,4.0,4.0,73,0.00,,,0.00,Wunderground v.1.15,2013-09-21 13:40:00,
2013-09-21 06:41:00,56.8,48.2,29.55,NE,34,4.0,5.0,73,0.00,,,0.00,Wunderground v.1.15,2013-09-21 13:41:00,
2013-09-21 06:43:00,56.9,48.3,29.55,NE,34,4.0,5.0,73,0.00,,,0.00,Wunderground v.1.15,2013-09-21 13:43:00,
2013-09-21 06:44:00,56.8,48.2,29.55,NE,35,4.0,5.0,73,0.00,,,0.00,Wunderground v.1.15,2013-09-21 13:44:00,
2013-09-21 06:46:00,56.7,48.1,29.55,NE,36,3.0,5.0,73,0.00,,,0.00,Wunderground v.1.15,2013-09-21 13:46:00,
2013-09-21 06:47:00,56.6,48.0,29.55,NE,36,4.0,5.0,73,0.00,,,0.00,Wunderground v.1.15,2013-09-21 13:47:00,
2013-09-21 06:48:00,56.5,47.9,29.55,NE,36,4.0,5.0,73,0.00,,,0.00,Wunderground v.1.15,2013-09-21 13:48:00,
2013-09-21 06:49:00,56.3,48.1,29.54,NE,36,3.0,5.0,74,0.00,,,0.00,Wunderground v.1.15,2013-09-21 13:49:00,
2013-09-21 06:51:00,56.1,47.9,29.54,NE,36,3.0,4.0,74,0.00,,,0.00,Wunderground v.1.15,2013-09-21 13:51:00,
2013-09-21 06:53:00,55.8,48.0,29.54,NE,36,4.0,5.0,75,0.00,,,0.00,Wunderground v.1.15,2013-09-21 13:53:00,
2013-09-21 06:54:00,55.7,47.9,29.54,NE,36,3.0,5.0,75,0.00,,,0.00,Wunderground v.1.15,2013-09-21 13:54:00,
2013-09-21 06:56:00,55.6,47.8,29.54,NE,36,3.0,5.0,75,0.00,,,0.00,Wunderground v.1.15,2013-09-21 13:56:00,
2013-09-21 06:58:00,55.5,47.7,29.55,NE,36,2.0,5.0,75,0.00,,,0.00,Wunderground v.1.15,2013-09-21 13:58:00,
2013-09-21 06:59:00,55.5,47.7,29.55,NE,36,1.0,5.0,75,0.00,,,0.00,Wunderground v.1.15,2013-09-21 13:59:00,
2013-09-21 07:01:00,55.5,47.7,29.55,NE,36,1.0,3.0,75,0.00,,,0.00,Wunderground v.1.15,2013-09-21 14:01:00,
2013-09-21 07:03:00,55.6,48.2,29.55,NE,36,1.0,3.0,76,0.00,,,0.00,Wunderground v.1.15,2013-09-21 14:03:00,
2013-09-21 07:04:00,55.6,47.8,29.55,NE,36,1.0,3.0,75,0.00,,,0.00,Wunderground v.1.15,2013-09-21 14:04:00,
2013-09-21 07:05:00,55.6,47.8,29.55,NE,36,2.0,3.0,75,0.00,,,0.00,Wunderground v.1.15,2013-09-21 14:05:00,
2013-09-21 07:06:00,55.6,47.8,29.55,NE,36,2.0,3.0,75,0.00,,,0.00,Wunderground v.1.15,2013-09-21 14:06:00,
2013-09-21 07:08:00,55.7,47.9,29.55,NE,36,2.0,3.0,75,0.00,,,0.00,Wunderground v.1.15,2013-09-21 14:08:00,
2013-09-21 07:09:00,55.7,47.9,29.55,NE,36,1.0,3.0,75,0.00,,,0.00,Wunderground v.1.15,2013-09-21 14:09:00,
2013-09-21 07:10:00,55.7,47.9,29.55,NE,36,2.0,3.0,75,0.00,,,0.00,Wunderground v.1.15,2013-09-21 14:10:00,
2013-09-21 07:11:00,55.7,47.9,29.55,NE,36,1.0,2.0,75,0.00,,,0.00,Wunderground v.1.15,2013-09-21 14:11:00,
2013-09-21 07:13:00,55.7,47.9,29.56,NE,36,1.0,2.0,75,0.00,,,0.00,Wunderground v.1.15,2013-09-21 14:13:00,
2013-09-21 07:14:00,55.7,48.2,29.56,NE,36,1.0,2.0,76,0.00,,,0.00,Wunderground v.1.15,2013-09-21 14:14:00,
2013-09-21 07:15:00,55.6,47.8,29.56,NE,36,1.0,2.0,75,0.00,,,0.00,Wunderground v.1.15,2013-09-21 14:15:00,
2013-09-21 07:16:00,55.5,47.7,29.56,NE,36,1.0,2.0,75,0.00,,,0.00,Wunderground v.1.15,2013-09-21 14:16:00,
2013-09-21 07:18:00,55.5,48.1,29.56,NE,36,2.0,2.0,76,0.00,,,0.00,Wunderground v.1.15,2013-09-21 14:18:00,
2013-09-21 07:19:00,55.4,48.0,29.56,NE,36,1.0,2.0,76,0.00,,,0.00,Wunderground v.1.15,2013-09-21 14:19:00,
2013-09-21 07:20:00,55.4,48.0,29.56,NE,36,2.0,3.0,76,0.00,,,0.00,Wunderground v.1.15,2013-09-21 14:20:00,
2013-09-21 07:21:00,55.4,48.0,29.56,NE,36,2.0,3.0,76,0.00,,,0.00,Wunderground v.1.15,2013-09-21 14:21:00,
2013-09-21 07:23:00,55.4,48.3,29.56,NE,36,4.0,4.0,77,0.00,,,0.00,Wunderground v.1.15,2013-09-21 14:23:00,
2013-09-21 07:25:00,55.4,48.0,29.56,NE,36,4.0,5.0,76,0.00,,,0.00,Wunderground v.1.15,2013-09-21 14:25:00,
2013-09-21 07:26:00,55.4,48.0,29.56,NE,36,5.0,5.0,76,0.00,,,0.00,Wunderground v.1.15,2013-09-21 14:26:00,
2013-09-21 07:29:00,55.4,48.0,29.56,NE,40,4.0,5.0,76,0.00,,,0.00,Wunderground v.1.15,2013-09-21 14:29:00,
2013-09-21 07:30:00,55.5,48.1,29.56,NE,40,3.0,5.0,76,0.00,,,0.00,Wunderground v.1.15,2013-09-21 14:30:00,
2013-09-21 07:31:00,55.5,48.1,29.56,NE,40,4.0,4.0,76,0.00,,,0.00,Wunderground v.1.15,2013-09-21 14:31:00,
2013-09-21 07:32:00,55.5,48.1,29.56,NE,40,4.0,4.0,76,0.00,,,0.00,Wunderground v.1.15,2013-09-21 14:32:00,
2013-09-21 07:34:00,55.6,48.2,29.56,NE,40,4.0,4.0,76,0.00,,,0.00,Wunderground v.1.15,2013-09-21 14:34:00,
2013-09-21 07:35:00,55.6,48.2,29.56,NE,40,3.0,5.0,76,0.00,,,0.00,Wunderground v.1.15,2013-09-21 14:35:00,
2013-09-21 07:36:00,55.7,48.2,29.56,NE,40,4.0,5.0,76,0.00,,,0.00,Wunderground v.1.15,2013-09-21 14:36:00,
2013-09-21 07:37:00,55.7,48.2,29.56,NE,42,5.0,5.0,76,0.00,,,0.00,Wunderground v.1.15,2013-09-21 14:37:00,
2013-09-21 07:39:00,55.9,48.1,29.56,NE,47,4.0,6.0,75,0.00,,,0.00,Wunderground v.1.15,2013-09-21 14:39:00,
2013-09-21 07:40:00,55.9,48.1,29.56,NE,47,4.0,6.0,75,0.00,,,0.00,Wunderground v.1.15,2013-09-21 14:40:00,
2013-09-21 07:41:00,55.9,48.1,29.56,NE,48,4.0,5.0,75,0.00,,,0.00,Wunderground v.1.15,2013-09-21 14:41:00,
2013-09-21 07:42:00,55.9,48.1,29.56,NE,48,5.0,5.0,75,0.00,,,0.00,Wunderground v.1.15,2013-09-21 14:42:00,
2013-09-21 07:45:00,55.9,48.1,29.56,NE,48,4.0,5.0,75,0.00,,,0.00,Wunderground v.1.15,2013-09-21 14:45:00,
2013-09-21 07:47:00,55.8,48.3,29.56,NE,48,4.0,5.0,76,0.00,,,0.00,Wunderground v.1.15,2013-09-21 14:47:00,
2013-09-21 07:50:00,55.7,48.2,29.56,NE,48,4.0,4.0,76,0.00,,,0.00,Wunderground v.1.15,2013-09-21 14:50:00,
2013-09-21 07:52:00,55.7,48.2,29.56,NE,48,4.0,5.0,76,0.00,,,0.00,Wunderground v.1.15,2013-09-21 14:52:00,
2013-09-21 07:53:00,55.7,48.2,29.56,NE,48,4.0,5.0,76,0.00,,,0.00,Wunderground v.1.15,2013-09-21 14:53:00,
2013-09-21 07:55:00,55.7,48.2,29.56,NE,48,3.0,5.0,76,0.00,,,0.00,Wunderground v.1.15,2013-09-21 14:55:00,
2013-09-21 07:57:00,55.7,48.2,29.56,NE,48,2.0,5.0,76,0.00,,,0.00,Wunderground v.1.15,2013-09-21 14:57:00,
2013-09-21 07:58:00,55.8,48.7,29.56,NE,48,0.0,5.0,77,0.00,,,0.00,Wunderground v.1.15,2013-09-21 14:58:00,
2013-09-21 08:00:00,55.9,48.4,29.56,NE,48,3.0,4.0,76,0.00,,,0.00,Wunderground v.1.15,2013-09-21 15:00:00,
2013-09-21 08:01:00,55.9,48.4,29.57,NE,48,3.0,4.0,76,0.00,,,0.00,Wunderground v.1.15,2013-09-21 15:01:00,
2013-09-21 08:02:00,56.0,48.5,29.57,NE,48,3.0,4.0,76,0.00,,,0.00,Wunderground v.1.15,2013-09-21 15:02:00,
2013-09-21 08:03:00,56.1,48.6,29.57,NE,48,2.0,4.0,76,0.00,,,0.00,Wunderground v.1.15,2013-09-21 15:03:00,
2013-09-21 08:06:00,56.2,48.7,29.57,NE,48,3.0,4.0,76,0.00,,,0.00,Wunderground v.1.15,2013-09-21 15:06:00,
2013-09-21 08:07:00,56.2,48.7,29.57,NE,48,3.0,4.0,76,0.00,,,0.00,Wunderground v.1.15,2013-09-21 15:07:00,
2013-09-21 08:08:00,56.2,48.7,29.57,NE,48,3.0,4.0,76,0.00,,,0.00,Wunderground v.1.15,2013-09-21 15:08:00,
2013-09-21 08:11:00,56.2,49.1,29.57,NE,48,3.0,3.0,77,0.00,,,0.00,Wunderground v.1.15,2013-09-21 15:11:00,
2013-09-21 08:12:00,56.3,49.2,29.57,NE,48,2.0,3.0,77,0.00,,,0.00,Wunderground v.1.15,2013-09-21 15:12:00,
2013-09-21 08:13:00,56.4,49.3,29.57,NE,48,2.0,3.0,77,0.00,,,0.00,Wunderground v.1.15,2013-09-21 15:13:00,
2013-09-21 08:16:00,56.5,49.4,29.57,NE,48,2.0,3.0,77,0.00,,,0.00,Wunderground v.1.15,2013-09-21 15:16:00,
2013-09-21 08:17:00,56.5,49.4,29.57,NE,48,1.0,3.0,77,0.00,,,0.00,Wunderground v.1.15,2013-09-21 15:17:00,
2013-09-21 08:18:00,56.6,49.5,29.57,NE,48,1.0,3.0,77,0.00,,,0.00,Wunderground v.1.15,2013-09-21 15:18:00,
2013-09-21 08:19:00,56.6,49.5,29.57,NE,48,1.0,3.0,77,0.00,,,0.00,Wunderground v.1.15,2013-09-21 15:19:00,
2013-09-21 08:21:00,56.8,49.7,29.57,NE,48,3.0,3.0,77,0.00,,,0.00,Wunderground v.1.15,2013-09-21 15:21:00,
2013-09-21 08:22:00,56.9,49.1,29.57,NE,48,4.0,5.0,75,0.00,,,0.00,Wunderground v.1.15,2013-09-21 15:22:00,
2013-09-21 08:23:00,57.1,49.2,29.57,NE,48,2.0,5.0,75,0.00,,,0.00,Wunderground v.1.15,2013-09-21 15:23:00,
2013-09-21 08:24:00,57.2,49.0,29.57,NE,48,2.0,5.0,74,0.00,,,0.00,Wunderground v.1.15,2013-09-21 15:24:00,
2013-09-21 08:26:00,57.4,48.8,29.58,NE,48,4.0,5.0,73,0.00,,,0.00,Wunderground v.1.15,2013-09-21 15:26:00,
2013-09-21 08:28:00,57.7,49.1,29.58,NE,48,4.0,5.0,73,0.00,,,0.00,Wunderground v.1.15,2013-09-21 15:28:00,
2013-09-21 08:29:00,58.0,49.0,29.58,NE,48,1.0,5.0,72,0.00,,,0.00,Wunderground v.1.15,2013-09-21 15:29:00,
2013-09-21 08:31:00,58.1,49.1,29.58,NE,48,2.0,4.0,72,0.00,,,0.00,Wunderground v.1.15,2013-09-21 15:31:00,
2013-09-21 08:32:00,58.2,48.8,29.58,NE,48,3.0,4.0,71,0.00,,,0.00,Wunderground v.1.15,2013-09-21 15:32:00,
2013-09-21 08:33:00,58.2,48.8,29.58,NE,48,3.0,4.0,71,0.00,,,0.00,Wunderground v.1.15,2013-09-21 15:33:00,
2013-09-21 08:35:00,58.3,48.9,29.58,NE,48,4.0,4.0,71,0.00,,,0.00,Wunderground v.1.15,2013-09-21 15:35:00,
2013-09-21 08:36:00,58.4,49.0,29.58,NE,48,3.0,4.0,71,0.00,,,0.00,Wunderground v.1.15,2013-09-21 15:36:00,
2013-09-21 08:37:00,58.4,49.0,29.58,NE,48,2.0,4.0,71,0.00,,,0.00,Wunderground v.1.15,2013-09-21 15:37:00,
2013-09-21 08:38:00,58.4,49.0,29.58,NE,48,3.0,4.0,71,0.00,,,0.00,Wunderground v.1.15,2013-09-21 15:38:00,
2013-09-21 08:40:00,58.4,49.0,29.58,NE,48,3.0,5.0,71,0.00,,,0.00,Wunderground v.1.15,2013-09-21 15:40:00,
2013-09-21 08:41:00,58.5,49.1,29.58,NE,48,2.0,4.0,71,0.00,,,0.00,Wunderground v.1.15,2013-09-21 15:41:00,
2013-09-21 08:42:00,58.5,49.1,29.58,NE,48,2.0,4.0,71,0.00,,,0.00,Wunderground v.1.15,2013-09-21 15:42:00,
2013-09-21 08:43:00,58.5,49.1,29.58,NE,48,2.0,4.0,71,0.00,,,0.00,Wunderground v.1.15,2013-09-21 15:43:00,
2013-09-21 08:45:00,58.5,49.1,29.58,NE,48,2.0,4.0,71,0.00,,,0.00,Wunderground v.1.15,2013-09-21 15:45:00,
2013-09-21 08:46:00,58.5,49.1,29.58,NE,48,3.0,4.0,71,0.00,,,0.00,Wunderground v.1.15,2013-09-21 15:46:00,
2013-09-21 08:47:00,58.5,49.1,29.58,NE,48,1.0,4.0,71,0.00,,,0.00,Wunderground v.1.15,2013-09-21 15:47:00,
2013-09-21 08:48:00,58.5,49.1,29.58,NE,48,3.0,4.0,71,0.00,,,0.00,Wunderground v.1.15,2013-09-21 15:48:00,
2013-09-21 08:50:00,58.5,49.1,29.58,NE,48,2.0,4.0,71,0.00,,,0.00,Wunderground v.1.15,2013-09-21 15:50:00,
2013-09-21 08:51:00,58.5,49.1,29.58,NE,48,2.0,4.0,71,0.00,,,0.00,Wunderground v.1.15,2013-09-21 15:51:00,
2013-09-21 08:52:00,58.5,49.1,29.58,NE,48,1.0,4.0,71,0.00,,,0.00,Wunderground v.1.15,2013-09-21 15:52:00,
2013-09-21 08:54:00,58.5,49.5,29.58,NE,48,3.0,4.0,72,0.00,,,0.00,Wunderground v.1.15,2013-09-21 15:54:00,
2013-09-21 08:55:00,58.6,49.6,29.58,NE,48,3.0,4.0,72,0.00,,,0.00,Wunderground v.1.15,2013-09-21 15:55:00,
2013-09-21 08:56:00,58.6,49.2,29.58,NE,48,1.0,4.0,71,0.00,,,0.00,Wunderground v.1.15,2013-09-21 15:56:00,
2013-09-21 08:57:00,58.6,49.2,29.58,NE,48,3.0,4.0,71,0.00,,,0.00,Wunderground v.1.15,2013-09-21 15:57:00,
2013-09-21 08:59:00,58.6,49.6,29.58,NE,48,1.0,4.0,72,0.00,,,0.00,Wunderground v.1.15,2013-09-21 15:59:00,
2013-09-21 09:00:00,58.6,49.6,29.58,NE,48,3.0,4.0,72,0.00,,,0.00,Wunderground v.1.15,2013-09-21 16:00:00,
2013-09-21 09:01:00,58.6,49.6,29.58,NE,48,4.0,4.0,72,0.00,,,0.00,Wunderground v.1.15,2013-09-21 16:01:00,
2013-09-21 09:02:00,58.6,49.6,29.58,NE,48,3.0,4.0,72,0.00,,,0.00,Wunderground v.1.15,2013-09-21 16:02:00,
2013-09-21 09:04:00,58.5,49.5,29.58,NE,48,3.0,4.0,72,0.00,,,0.00,Wunderground v.1.15,2013-09-21 16:04:00,
2013-09-21 09:06:00,58.5,49.5,29.58,NE,48,2.0,4.0,72,0.00,,,0.00,Wunderground v.1.15,2013-09-21 16:06:00,
2013-09-21 09:07:00,58.5,49.5,29.58,NE,48,3.0,5.0,72,0.00,,,0.00,Wunderground v.1.15,2013-09-21 16:07:00,
2013-09-21 09:09:00,58.5,49.9,29.58,NE,48,3.0,5.0,73,0.00,,,0.00,Wunderground v.1.15,2013-09-21 16:09:00,
2013-09-21 09:11:00,58.5,49.9,29.58,NE,48,2.0,4.0,73,0.00,,,0.00,Wunderground v.1.15,2013-09-21 16:11:00,
2013-09-21 09:12:00,58.4,49.8,29.58,NE,48,4.0,4.0,73,0.00,,,0.00,Wunderground v.1.15,2013-09-21 16:12:00,
2013-09-21 09:14:00,58.4,49.8,29.58,NE,48,1.0,4.0,73,0.00,,,0.00,Wunderground v.1.15,2013-09-21 16:14:00,
2013-09-21 09:15:00,58.4,49.8,29.58,NE,48,3.0,4.0,73,0.00,,,0.00,Wunderground v.1.15,2013-09-21 16:15:00,
2013-09-21 09:16:00,58.4,49.8,29.58,NE,48,2.0,4.0,73,0.00,,,0.00,Wunderground v.1.15,2013-09-21 16:16:00,
2013-09-21 09:17:00,58.5,49.9,29.58,NE,48,4.0,4.0,73,0.00,,,0.00,Wunderground v.1.15,2013-09-21 16:17:00,
2013-09-21 09:19:00,58.5,49.9,29.58,NE,48,3.0,4.0,73,0.00,,,0.00,Wunderground v.1.15,2013-09-21 16:19:00,
2013-09-21 09:20:00,58.5,49.9,29.58,NE,48,3.0,3.0,73,0.00,,,0.00,Wunderground v.1.15,2013-09-21 16:20:00,
2013-09-21 09:22:00,58.5,49.9,29.58,NE,48,3.0,3.0,73,0.00,,,0.00,Wunderground v.1.15,2013-09-21 16:22:00,
2013-09-21 09:23:00,58.5,49.9,29.58,NE,48,0.0,3.0,73,0.00,,,0.00,Wunderground v.1.15,2013-09-21 16:23:00,
2013-09-21 09:24:00,58.6,50.0,29.58,NE,48,2.0,3.0,73,0.00,,,0.00,Wunderground v.1.15,2013-09-21 16:24:00,
2013-09-21 09:25:00,58.7,50.1,29.58,NE,48,2.0,3.0,73,0.00,,,0.00,Wunderground v.1.15,2013-09-21 16:25:00,
2013-09-21 09:27:00,58.7,50.1,29.59,NE,48,1.0,3.0,73,0.00,,,0.00,Wunderground v.1.15,2013-09-21 16:27:00,
2013-09-21 09:28:00,58.8,50.2,29.58,NE,48,2.0,3.0,73,0.00,,,0.00,Wunderground v.1.15,2013-09-21 16:28:00,
2013-09-21 09:29:00,58.9,50.6,29.58,NE,48,1.0,4.0,74,0.00,,,0.00,Wunderground v.1.15,2013-09-21 16:29:00,
2013-09-21 09:30:00,58.9,50.6,29.58,NE,48,1.0,2.0,74,0.00,,,0.00,Wunderground v.1.15,2013-09-21 16:30:00,
2013-09-21 09:32:00,59.0,50.7,29.58,NE,48,3.0,5.0,74,0.00,,,0.00,Wunderground v.1.15,2013-09-21 16:32:00,
2013-09-21 09:33:00,59.0,50.4,29.58,NE,48,3.0,5.0,73,0.00,,,0.00,Wunderground v.1.15,2013-09-21 16:33:00,
2013-09-21 09:35:00,59.1,50.8,29.58,NE,48,4.0,5.0,74,0.00,,,0.00,Wunderground v.1.15,2013-09-21 16:35:00,
2013-09-21 09:37:00,59.3,50.6,29.59,NE,48,1.0,5.0,73,0.00,,,0.00,Wunderground v.1.15,2013-09-21 16:37:00,
2013-09-21 09:38:00,59.3,50.6,29.58,NE,48,3.0,5.0,73,0.00,,,0.00,Wunderground v.1.15,2013-09-21 16:38:00,
2013-09-21 09:40:00,59.4,50.4,29.58,NE,48,3.0,5.0,72,0.00,,,0.00,Wunderground v.1.15,2013-09-21 16:40:00,
2013-09-21 09:41:00,59.5,50.5,29.59,NE,48,4.0,4.0,72,0.00,,,0.00,Wunderground v.1.15,2013-09-21 16:41:00,
2013-09-21 09:42:00,59.5,50.5,29.58,NE,48,3.0,4.0,72,0.00,,,0.00,Wunderground v.1.15,2013-09-21 16:42:00,
2013-09-21 09:43:00,59.5,50.5,29.59,NE,48,2.0,4.0,72,0.00,,,0.00,Wunderground v.1.15,2013-09-21 16:43:00,
2013-09-21 09:45:00,59.6,50.6,29.59,NE,48,1.0,4.0,72,0.00,,,0.00,Wunderground v.1.15,2013-09-21 16:45:00,
2013-09-21 09:46:00,59.6,50.6,29.58,NE,48,2.0,4.0,72,0.00,,,0.00,Wunderground v.1.15,2013-09-21 16:46:00,
2013-09-21 09:47:00,59.8,50.8,29.58,NE,48,2.0,4.0,72,0.00,,,0.00,Wunderground v.1.15,2013-09-21 16:47:00,
2013-09-21 09:48:00,59.9,50.8,29.59,NE,48,1.0,4.0,72,0.00,,,0.00,Wunderground v.1.15,2013-09-21 16:48:00,
2013-09-21 09:49:00,59.9,50.8,29.59,NE,48,1.0,4.0,72,0.00,,,0.00,Wunderground v.1.15,2013-09-21 16:49:00,
2013-09-21 09:50:00,60.1,51.0,29.59,NE,48,3.0,3.0,72,0.00,,,0.00,Wunderground v.1.15,2013-09-21 16:50:00,
2013-09-21 09:51:00,60.3,50.9,29.59,NE,48,4.0,5.0,71,0.00,,,0.00,Wunderground v.1.15,2013-09-21 16:51:00,
2013-09-21 09:53:00,60.5,51.0,29.59,NE,48,5.0,6.0,71,0.00,,,0.00,Wunderground v.1.15,2013-09-21 16:53:00,
2013-09-21 09:54:00,60.6,50.8,29.59,NE,48,4.0,6.0,70,0.00,,,0.00,Wunderground v.1.15,2013-09-21 16:54:00,
2013-09-21 09:55:00,60.6,50.4,29.59,NE,48,5.0,7.0,69,0.00,,,0.00,Wunderground v.1.15,2013-09-21 16:55:00,
2013-09-21 09:56:00,60.5,50.3,29.59,NE,48,4.0,7.0,69,0.00,,,0.00,Wunderground v.1.15,2013-09-21 16:56:00,
2013-09-21 09:58:00,60.4,50.2,29.59,NE,48,3.0,7.0,69,0.00,,,0.00,Wunderground v.1.15,2013-09-21 16:58:00,
2013-09-21 09:59:00,60.4,50.2,29.59,NE,48,4.0,7.0,69,0.00,,,0.00,Wunderground v.1.15,2013-09-21 16:59:00,
2013-09-21 10:00:00,60.5,50.7,29.59,NE,48,3.0,4.0,70,0.00,,,0.00,Wunderground v.1.15,2013-09-21 17:00:00,
2013-09-21 10:01:00,60.5,50.7,29.59,NE,48,4.0,4.0,70,0.00,,,0.00,Wunderground v.1.15,2013-09-21 17:01:00,
2013-09-21 10:03:00,60.7,50.9,29.59,NE,48,5.0,5.0,70,0.00,,,0.00,Wunderground v.1.15,2013-09-21 17:03:00,
2013-09-21 10:04:00,60.8,50.6,29.59,NE,48,3.0,5.0,69,0.00,,,0.00,Wunderground v.1.15,2013-09-21 17:04:00,
2013-09-21 10:05:00,60.9,50.7,29.59,NE,48,5.0,5.0,69,0.00,,,0.00,Wunderground v.1.15,2013-09-21 17:05:00,
2013-09-21 10:06:00,61.0,50.4,29.59,NE,48,4.0,5.0,68,0.00,,,0.00,Wunderground v.1.15,2013-09-21 17:06:00,
2013-09-21 10:08:00,61.2,50.6,29.59,NE,48,5.0,6.0,68,0.00,,,0.00,Wunderground v.1.15,2013-09-21 17:08:00,
2013-09-21 10:09:00,61.2,50.6,29.59,NE,48,4.0,7.0,68,0.00,,,0.00,Wunderground v.1.15,2013-09-21 17:09:00,
2013-09-21 10:10:00,61.2,50.6,29.59,NE,48,5.0,5.0,68,0.00,,,0.00,Wunderground v.1.15,2013-09-21 17:10:00,
2013-09-21 10:11:00,61.2,50.6,29.59,NE,48,3.0,5.0,68,0.00,,,0.00,Wunderground v.1.15,2013-09-21 17:11:00,
2013-09-21 10:13:00,61.3,50.6,29.59,NE,48,3.0,5.0,68,0.00,,,0.00,Wunderground v.1.15,2013-09-21 17:13:00,
2013-09-21 10:14:00,61.5,50.4,29.59,NE,48,5.0,6.0,67,0.00,,,0.00,Wunderground v.1.15,2013-09-21 17:14:00,
2013-09-21 10:15:00,61.6,50.5,29.59,NE,48,4.0,6.0,67,0.00,,,0.00,Wunderground v.1.15,2013-09-21 17:15:00,
2013-09-21 10:17:00,61.8,50.7,29.59,NE,48,1.0,6.0,67,0.00,,,0.00,Wunderground v.1.15,2013-09-21 17:17:00,
2013-09-21 10:18:00,61.9,50.8,29.59,NE,48,3.0,6.0,67,0.00,,,0.00,Wunderground v.1.15,2013-09-21 17:18:00,
2013-09-21 10:19:00,61.9,50.8,29.59,NE,48,3.0,6.0,67,0.00,,,0.00,Wunderground v.1.15,2013-09-21 17:19:00,
2013-09-21 10:20:00,62.0,50.9,29.59,NE,48,1.0,6.0,67,0.00,,,0.00,Wunderground v.1.15,2013-09-21 17:20:00,
2013-09-21 10:21:00,62.1,51.0,29.59,NE,48,0.0,3.0,67,0.00,,,0.00,Wunderground v.1.15,2013-09-21 17:21:00,
2013-09-21 10:22:00,62.3,50.8,29.59,NE,48,3.0,4.0,66,0.00,,,0.00,Wunderground v.1.15,2013-09-21 17:22:00,
2013-09-21 10:24:00,62.5,51.0,29.59,NE,48,3.0,4.0,66,0.00,,,0.00,Wunderground v.1.15,2013-09-21 17:24:00,
2013-09-21 10:25:00,62.6,49.8,29.59,NE,48,1.0,4.0,63,0.00,,,0.00,Wunderground v.1.15,2013-09-21 17:25:00,
2013-09-21 10:26:00,62.6,50.2,29.59,NE,48,1.0,4.0,64,0.00,,,0.00,Wunderground v.1.15,2013-09-21 17:26:00,
2013-09-21 10:28:00,62.8,50.0,29.59,NE,48,2.0,4.0,63,0.00,,,0.00,Wunderground v.1.15,2013-09-21 17:28:00,
2013-09-21 10:29:00,62.9,50.1,29.59,NE,48,1.0,4.0,63,0.00,,,0.00,Wunderground v.1.15,2013-09-21 17:29:00,
2013-09-21 10:30:00,63.0,50.2,29.59,NE,48,5.0,5.0,63,0.00,,,0.00,Wunderground v.1.15,2013-09-21 17:30:00,
2013-09-21 10:31:00,62.9,49.7,29.59,NE,48,4.0,5.0,62,0.00,,,0.00,Wunderground v.1.15,2013-09-21 17:31:00,
2013-09-21 10:33:00,62.9,50.1,29.59,NE,48,3.0,5.0,63,0.00,,,0.00,Wunderground v.1.15,2013-09-21 17:33:00,
2013-09-21 10:34:00,62.9,50.1,29.59,NE,48,0.0,5.0,63,0.00,,,0.00,Wunderground v.1.15,2013-09-21 17:34:00,
2013-09-21 10:35:00,62.9,50.1,29.59,NE,48,3.0,5.0,63,0.00,,,0.00,Wunderground v.1.15,2013-09-21 17:35:00,
2013-09-21 10:36:00,63.0,50.2,29.59,NE,48,1.0,6.0,63,0.00,,,0.00,Wunderground v.1.15,2013-09-21 17:36:00,
2013-09-21 10:38:00,63.1,49.9,29.59,NE,48,1.0,6.0,62,0.00,,,0.00,Wunderground v.1.15,2013-09-21 17:38:00,
2013-09-21 10:40:00,63.3,50.1,29.59,NE,48,2.0,6.0,62,0.00,,,0.00,Wunderground v.1.15,2013-09-21 17:40:00,
2013-09-21 10:41:00,63.6,50.3,29.59,NE,48,6.0,6.0,62,0.00,,,0.00,Wunderground v.1.15,2013-09-21 17:41:00,
2013-09-21 10:44:00,63.8,50.1,29.59,NE,48,4.0,7.0,61,0.00,,,0.00,Wunderground v.1.15,2013-09-21 17:44:00,
2013-09-21 10:45:00,63.8,50.1,29.59,NE,48,3.0,7.0,61,0.00,,,0.00,Wunderground v.1.15,2013-09-21 17:45:00,
2013-09-21 10:46:00,63.9,50.2,29.60,NE,48,0.0,7.0,61,0.00,,,0.00,Wunderground v.1.15,2013-09-21 17:46:00,
2013-09-21 10:49:00,64.3,50.1,29.60,NE,49,1.0,7.0,60,0.00,,,0.00,Wunderground v.1.15,2013-09-21 17:49:00,
2013-09-21 10:50:00,64.5,50.3,29.60,NE,49,2.0,7.0,60,0.00,,,0.00,Wunderground v.1.15,2013-09-21 17:50:00,
2013-09-21 10:51:00,64.6,50.4,29.60,NE,51,1.0,5.0,60,0.00,,,0.00,Wunderground v.1.15,2013-09-21 17:51:00,
2013-09-21 10:54:00,65.0,49.9,29.60,ENE,73,2.0,6.0,58,0.00,,,0.00,Wunderground v.1.15,2013-09-21 17:54:00,
2013-09-21 10:55:00,65.2,50.0,29.60,East,81,3.0,6.0,58,0.00,,,0.00,Wunderground v.1.15,2013-09-21 17:55:00,
2013-09-21 10:56:00,65.2,50.0,29.60,East,81,1.0,6.0,58,0.00,,,0.00,Wunderground v.1.15,2013-09-21 17:56:00,
2013-09-21 10:57:00,65.1,50.0,29.60,ESE,117,4.0,8.0,58,0.00,,,0.00,Wunderground v.1.15,2013-09-21 17:57:00,
2013-09-21 10:59:00,65.1,50.0,29.60,SE,135,8.0,8.0,58,0.00,,,0.00,Wunderground v.1.15,2013-09-21 17:59:00,
2013-09-21 11:01:00,65.3,50.6,29.60,SSE,162,7.0,8.0,59,0.00,,,0.00,Wunderground v.1.15,2013-09-21 18:01:00,
2013-09-21 11:02:00,65.3,50.6,29.60,SSE,162,5.0,8.0,59,0.00,,,0.00,Wunderground v.1.15,2013-09-21 18:02:00,
2013-09-21 11:04:00,65.3,50.6,29.60,SSE,162,5.0,8.0,59,0.00,,,0.00,Wunderground v.1.15,2013-09-21 18:04:00,
2013-09-21 11:06:00,65.4,51.1,29.60,South,171,5.0,9.0,60,0.00,,,0.00,Wunderground v.1.15,2013-09-21 18:06:00,
2013-09-21 11:07:00,65.5,51.2,29.60,South,171,7.0,9.0,60,0.00,,,0.00,Wunderground v.1.15,2013-09-21 18:07:00,
2013-09-21 11:09:00,65.7,50.0,29.60,South,172,1.0,9.0,57,0.00,,,0.00,Wunderground v.1.15,2013-09-21 18:09:00,
2013-09-21 11:11:00,65.9,49.8,29.60,South,175,5.0,7.0,56,0.00,,,0.00,Wunderground v.1.15,2013-09-21 18:11:00,
2013-09-21 11:12:00,65.9,49.8,29.60,South,176,5.0,7.0,56,0.00,,,0.00,Wunderground v.1.15,2013-09-21 18:12:00,
2013-09-21 11:14:00,65.8,49.7,29.60,South,178,6.0,7.0,56,0.00,,,0.00,Wunderground v.1.15,2013-09-21 18:14:00,
2013-09-21 11:17:00,65.7,49.6,29.60,South,180,2.0,7.0,56,0.00,,,0.00,Wunderground v.1.15,2013-09-21 18:17:00,
2013-09-21 11:18:00,65.7,49.6,29.60,South,180,0.0,7.0,56,0.00,,,0.00,Wunderground v.1.15,2013-09-21 18:18:00,
2013-09-21 11:20:00,65.8,49.7,29.60,South,186,5.0,7.0,56,0.00,,,0.00,Wunderground v.1.15,2013-09-21 18:20:00,
2013-09-21 11:22:00,65.8,49.2,29.60,South,187,1.0,6.0,55,0.00,,,0.00,Wunderground v.1.15,2013-09-21 18:22:00,
2013-09-21 11:23:00,65.8,49.7,29.60,South,187,2.0,6.0,56,0.00,,,0.00,Wunderground v.1.15,2013-09-21 18:23:00,
2013-09-21 11:25:00,66.0,49.8,29.60,South,187,4.0,6.0,56,0.00,,,0.00,Wunderground v.1.15,2013-09-21 18:25:00,
2013-09-21 11:27:00,66.2,49.6,29.60,South,187,1.0,6.0,55,0.00,,,0.00,Wunderground v.1.15,2013-09-21 18:27:00,
2013-09-21 11:29:00,66.3,49.6,29.60,South,187,2.0,6.0,55,0.00,,,0.00,Wunderground v.1.15,2013-09-21 18:29:00,
2013-09-21 11:30:00,66.4,49.7,29.59,South,187,4.0,6.0,55,0.00,,,0.00,Wunderground v.1.15,2013-09-21 18:30:00,
2013-09-21 11:32:00,66.5,49.3,29.59,South,191,0.0,7.0,54,0.00,,,0.00,Wunderground v.1.15,2013-09-21 18:32:00,
2013-09-21 11:34:00,66.7,49.5,29.59,SSW,194,3.0,7.0,54,0.00,,,0.00,Wunderground v.1.15,2013-09-21 18:34:00,
2013-09-21 11:36:00,66.7,48.5,29.59,SSW,194,5.0,7.0,52,0.00,,,0.00,Wunderground v.1.15,2013-09-21 18:36:00,
2013-09-21 11:37:00,66.8,49.6,29.59,SSW,194,3.0,7.0,54,0.00,,,0.00,Wunderground v.1.15,2013-09-21 18:37:00,
2013-09-21 11:38:00,66.8,49.6,29.59,SSW,194,2.0,7.0,54,0.00,,,0.00,Wunderground v.1.15,2013-09-21 18:38:00,
2013-09-21 11:39:00,66.9,49.7,29.59,SSW,202,5.0,7.0,54,0.00,,,0.00,Wunderground v.1.15,2013-09-21 18:39:00,
2013-09-21 11:41:00,67.2,50.0,29.59,SSW,211,6.0,6.0,54,0.00,,,0.00,Wunderground v.1.15,2013-09-21 18:41:00,
2013-09-21 11:43:00,67.3,50.1,29.59,SW,217,6.0,9.0,54,0.00,,,0.00,Wunderground v.1.15,2013-09-21 18:43:00,
2013-09-21 11:44:00,67.2,48.5,29.59,SW,219,4.0,9.0,51,0.00,,,0.00,Wunderground v.1.15,2013-09-21 18:44:00,
2013-09-21 11:46:00,67.1,49.4,29.59,SW,219,5.0,9.0,53,0.00,,,0.00,Wunderground v.1.15,2013-09-21 18:46:00,
2013-09-21 11:48:00,67.3,49.6,29.59,SW,219,5.0,9.0,53,0.00,,,0.00,Wunderground v.1.15,2013-09-21 18:48:00,
2013-09-21 11:49:00,67.5,49.3,29.59,SW,223,6.0,9.0,52,0.00,,,0.00,Wunderground v.1.15,2013-09-21 18:49:00,
2013-09-21 11:50:00,67.6,48.8,29.59,SW,227,8.0,9.0,51,0.00,,,0.00,Wunderground v.1.15,2013-09-21 18:50:00,
2013-09-21 11:51:00,67.6,48.8,29.59,SW,228,5.0,8.0,51,0.00,,,0.00,Wunderground v.1.15,2013-09-21 18:51:00,
2013-09-21 11:53:00,67.6,49.3,29.59,SW,228,2.0,8.0,52,0.00,,,0.00,Wunderground v.1.15,2013-09-21 18:53:00,
2013-09-21 11:54:00,67.7,48.4,29.59,SW,228,0.0,8.0,50,0.00,,,0.00,Wunderground v.1.15,2013-09-21 18:54:00,
2013-09-21 11:56:00,67.7,47.3,29.59,SW,228,6.0,8.0,48,0.00,,,0.00,Wunderground v.1.15,2013-09-21 18:56:00,
2013-09-21 11:57:00,67.9,48.6,29.59,SW,228,4.0,8.0,50,0.00,,,0.00,Wunderground v.1.15,2013-09-21 18:57:00,
2013-09-21 11:58:00,68.3,52.0,29.59,SW,234,5.0,8.0,56,0.00,,,0.00,Wunderground v.1.15,2013-09-21 18:58:00,
2013-09-21 11:59:00,68.4,50.6,29.59,SW,234,3.0,8.0,53,0.00,,,0.00,Wunderground v.1.15,2013-09-21 18:59:00,
2013-09-21 12:01:00,68.5,50.2,29.59,WSW,242,7.0,7.0,52,0.00,,,0.00,Wunderground v.1.15,2013-09-21 19:01:00,
2013-09-21 12:02:00,68.5,51.7,29.59,WSW,250,6.0,8.0,55,0.00,,,0.00,Wunderground v.1.15,2013-09-21 19:02:00,
2013-09-21 12:03:00,68.5,48.6,29.59,WSW,250,3.0,8.0,49,0.00,,,0.00,Wunderground v.1.15,2013-09-21 19:03:00,
2013-09-21 12:04:00,68.6,48.7,29.59,WSW,250,2.0,8.0,49,0.00,,,0.00,Wunderground v.1.15,2013-09-21 19:04:00,
2013-09-21 12:06:00,68.7,49.3,29.58,WSW,250,5.0,8.0,50,0.00,,,0.00,Wunderground v.1.15,2013-09-21 19:06:00,
2013-09-21 12:07:00,68.7,49.3,29.58,WSW,250,4.0,9.0,50,0.00,,,0.00,Wunderground v.1.15,2013-09-21 19:07:00,
2013-09-21 12:08:00,68.8,48.9,29.58,SW,236,8.0,11.0,49,0.00,,,0.00,Wunderground v.1.15,2013-09-21 19:08:00,
2013-09-21 12:09:00,68.8,48.9,29.58,SW,235,3.0,11.0,49,0.00,,,0.00,Wunderground v.1.15,2013-09-21 19:09:00,
2013-09-21 12:11:00,69.0,49.0,29.58,WSW,237,1.0,5.0,49,0.00,,,0.00,Wunderground v.1.15,2013-09-21 19:11:00,
2013-09-21 12:13:00,69.0,48.5,29.58,WSW,246,3.0,5.0,48,0.00,,,0.00,Wunderground v.1.15,2013-09-21 19:13:00,
2013-09-21 12:14:00,69.0,47.9,29.58,WSW,252,6.0,6.0,47,0.00,,,0.00,Wunderground v.1.15,2013-09-21 19:14:00,
2013-09-21 12:17:00,69.1,48.0,29.59,WSW,241,5.0,6.0,47,0.00,,,0.00,Wunderground v.1.15,2013-09-21 19:17:00,
2013-09-21 12:18:00,69.0,47.4,29.59,South,191,8.0,10.0,46,0.00,,,0.00,Wunderground v.1.15,2013-09-21 19:18:00,
2013-09-21 12:19:00,68.8,47.2,29.58,South,190,0.0,10.0,46,0.00,,,0.00,Wunderground v.1.15,2013-09-21 19:19:00,
2013-09-21 12:20:00,68.7,47.1,29.58,South,190,0.0,10.0,46,0.00,,,0.00,Wunderground v.1.15,2013-09-21 19:20:00,
2013-09-21 12:22:00,68.6,47.0,29.59,SW,224,6.0,8.0,46,0.00,,,0.00,Wunderground v.1.15,2013-09-21 19:22:00,
2013-09-21 12:23:00,68.5,48.6,29.59,WSW,252,8.0,8.0,49,0.00,,,0.00,Wunderground v.1.15,2013-09-21 19:23:00,
2013-09-21 12:24:00,68.4,47.9,29.59,WSW,256,6.0,9.0,48,0.00,,,0.00,Wunderground v.1.15,2013-09-21 19:24:00,
2013-09-21 12:25:00,68.3,47.8,29.59,WSW,251,6.0,9.0,48,0.00,,,0.00,Wunderground v.1.15,2013-09-21 19:25:00,
2013-09-21 12:27:00,68.3,48.9,29.59,WSW,248,4.0,9.0,50,0.00,,,0.00,Wunderground v.1.15,2013-09-21 19:27:00,
2013-09-21 12:28:00,68.3,47.8,29.59,SSW,196,8.0,10.0,48,0.00,,,0.00,Wunderground v.1.15,2013-09-21 19:28:00,
2013-09-21 12:29:00,68.3,47.3,29.59,SSW,196,4.0,10.0,47,0.00,,,0.00,Wunderground v.1.15,2013-09-21 19:29:00,
2013-09-21 12:30:00,68.2,47.2,29.59,SSW,197,4.0,5.0,47,0.00,,,0.00,Wunderground v.1.15,2013-09-21 19:30:00,
2013-09-21 12:32:00,68.1,47.7,29.59,SW,223,4.0,7.0,48,0.00,,,0.00,Wunderground v.1.15,2013-09-21 19:32:00,
2013-09-21 12:33:00,68.1,47.7,29.59,SW,222,4.0,7.0,48,0.00,,,0.00,Wunderground v.1.15,2013-09-21 19:33:00,
2013-09-21 12:34:00,68.1,47.1,29.59,SW,216,2.0,7.0,47,0.00,,,0.00,Wunderground v.1.15,2013-09-21 19:34:00,
2013-09-21 12:35:00,68.1,47.1,29.59,SW,216,2.0,7.0,47,0.00,,,0.00,Wunderground v.1.15,2013-09-21 19:35:00,
2013-09-21 12:38:00,68.3,47.3,29.58,SSW,208,9.0,11.0,47,0.00,,,0.00,Wunderground v.1.15,2013-09-21 19:38:00,
2013-09-21 12:39:00,68.4,47.4,29.59,South,181,8.0,12.0,47,0.00,,,0.00,Wunderground v.1.15,2013-09-21 19:39:00,
2013-09-21 12:40:00,68.6,47.0,29.58,SSE,154,7.0,8.0,46,0.00,,,0.00,Wunderground v.1.15,2013-09-21 19:40:00,
2013-09-21 12:43:00,68.9,47.8,29.58,South,184,6.0,13.0,47,0.00,,,0.00,Wunderground v.1.15,2013-09-21 19:43:00,
2013-09-21 12:44:00,69.0,46.8,29.59,South,187,10.0,13.0,45,0.00,,,0.00,Wunderground v.1.15,2013-09-21 19:44:00,
2013-09-21 12:45:00,68.9,46.7,29.59,South,186,6.0,13.0,45,0.00,,,0.00,Wunderground v.1.15,2013-09-21 19:45:00,
2013-09-21 12:48:00,69.0,47.4,29.58,SSW,194,11.0,13.0,46,0.00,,,0.00,Wunderground v.1.15,2013-09-21 19:48:00,
2013-09-21 12:49:00,69.1,47.4,29.58,South,174,6.0,13.0,46,0.00,,,0.00,Wunderground v.1.15,2013-09-21 19:49:00,
2013-09-21 12:50:00,69.1,46.9,29.58,SSE,156,7.0,7.0,45,0.00,,,0.00,Wunderground v.1.15,2013-09-21 19:50:00,
2013-09-21 12:54:00,69.5,47.2,29.58,SSE,155,10.0,12.0,45,0.00,,,0.00,Wunderground v.1.15,2013-09-21 19:54:00,
2013-09-21 12:55:00,69.5,47.2,29.58,SSE,148,8.0,12.0,45,0.00,,,0.00,Wunderground v.1.15,2013-09-21 19:55:00,
2013-09-21 12:56:00,69.5,47.2,29.58,SSE,153,9.0,12.0,45,0.00,,,0.00,Wunderground v.1.15,2013-09-21 19:56:00,
2013-09-21 12:59:00,69.7,47.4,29.58,SSE,161,8.0,12.0,45,0.00,,,0.00,Wunderground v.1.15,2013-09-21 19:59:00,
2013-09-21 13:00:00,69.8,46.9,29.58,South,176,4.0,6.0,44,0.00,,,0.00,Wunderground v.1.15,2013-09-21 20:00:00,
2013-09-21 13:01:00,70.0,47.1,29.58,SSW,206,2.0,7.0,44,0.00,,,0.00,Wunderground v.1.15,2013-09-21 20:01:00,
2013-09-21 13:04:00,70.1,45.9,29.58,SSW,201,14.0,14.0,42,0.00,,,0.00,Wunderground v.1.15,2013-09-21 20:04:00,
2013-09-21 13:05:00,70.1,45.9,29.58,SW,216,8.0,16.0,42,0.00,,,0.00,Wunderground v.1.15,2013-09-21 20:05:00,
2013-09-21 13:06:00,70.1,45.3,29.58,SSW,204,9.0,16.0,41,0.00,,,0.00,Wunderground v.1.15,2013-09-21 20:06:00,
2013-09-21 13:07:00,69.9,45.1,29.58,WSW,242,11.0,16.0,41,0.00,,,0.00,Wunderground v.1.15,2013-09-21 20:07:00,
2013-09-21 13:09:00,69.9,46.4,29.58,SSW,207,4.0,16.0,43,0.00,,,0.00,Wunderground v.1.15,2013-09-21 20:09:00,
2013-09-21 13:10:00,70.0,45.8,29.58,SSW,213,2.0,6.0,42,0.00,,,0.00,Wunderground v.1.15,2013-09-21 20:10:00,
2013-09-21 13:11:00,70.2,46.0,29.58,South,170,7.0,9.0,42,0.00,,,0.00,Wunderground v.1.15,2013-09-21 20:11:00,
2013-09-21 13:12:00,70.4,45.6,29.58,SSE,167,6.0,9.0,41,0.00,,,0.00,Wunderground v.1.15,2013-09-21 20:12:00,
2013-09-21 13:15:00,70.4,45.6,29.58,SSW,198,5.0,13.0,41,0.00,,,0.00,Wunderground v.1.15,2013-09-21 20:15:00,
2013-09-21 13:16:00,70.3,45.5,29.58,SSE,160,7.0,13.0,41,0.00,,,0.00,Wunderground v.1.15,2013-09-21 20:16:00,
2013-09-21 13:17:00,70.3,45.5,29.58,SSE,163,7.0,13.0,41,0.00,,,0.00,Wunderground v.1.15,2013-09-21 20:17:00,
2013-09-21 13:20:00,70.2,45.4,29.58,SSW,198,7.0,10.0,41,0.00,,,0.00,Wunderground v.1.15,2013-09-21 20:20:00,
2013-09-21 13:21:00,70.2,45.4,29.58,SSW,195,4.0,10.0,41,0.00,,,0.00,Wunderground v.1.15,2013-09-21 20:21:00,
2013-09-21 13:22:00,70.3,45.5,29.58,South,189,9.0,12.0,41,0.00,,,0.00,Wunderground v.1.15,2013-09-21 20:22:00,
2013-09-21 13:25:00,70.1,44.6,29.58,South,190,3.0,12.0,40,0.00,,,0.00,Wunderground v.1.15,2013-09-21 20:25:00,
2013-09-21 13:26:00,70.1,44.6,29.58,SSW,193,3.0,12.0,40,0.00,,,0.00,Wunderground v.1.15,2013-09-21 20:26:00,
2013-09-21 13:27:00,70.1,44.6,29.57,South,190,3.0,12.0,40,0.00,,,0.00,Wunderground v.1.15,2013-09-21 20:27:00,
2013-09-21 13:30:00,70.1,44.6,29.58,SSW,212,7.0,10.0,40,0.00,,,0.00,Wunderground v.1.15,2013-09-21 20:30:00,
2013-09-21 13:31:00,70.1,44.6,29.58,SSW,211,5.0,10.0,40,0.00,,,0.00,Wunderground v.1.15,2013-09-21 20:31:00,
2013-09-21 13:32:00,70.2,44.7,29.58,WSW,242,11.0,12.0,40,0.00,,,0.00,Wunderground v.1.15,2013-09-21 20:32:00,
2013-09-21 13:36:00,70.1,43.3,29.58,SSW,205,7.0,12.0,38,0.00,,,0.00,Wunderground v.1.15,2013-09-21 20:36:00,
2013-09-21 13:37:00,70.1,43.3,29.57,WSW,247,7.0,12.0,38,0.00,,,0.00,Wunderground v.1.15,2013-09-21 20:37:00,
2013-09-21 13:38:00,70.2,44.1,29.58,SSW,211,11.0,12.0,39,0.00,,,0.00,Wunderground v.1.15,2013-09-21 20:38:00,
2013-09-21 13:41:00,70.2,42.0,29.58,SW,228,12.0,12.0,36,0.00,,,0.00,Wunderground v.1.15,2013-09-21 20:41:00,
2013-09-21 13:42:00,70.2,42.0,29.58,SW,236,8.0,12.0,36,0.00,,,0.00,Wunderground v.1.15,2013-09-21 20:42:00,
2013-09-21 13:43:00,70.0,42.5,29.58,SW,229,11.0,18.0,37,0.00,,,0.00,Wunderground v.1.15,2013-09-21 20:43:00,
2013-09-21 13:46:00,69.8,41.6,29.58,SW,227,8.0,18.0,36,0.00,,,0.00,Wunderground v.1.15,2013-09-21 20:46:00,
2013-09-21 13:47:00,69.7,41.5,29.58,SSW,211,12.0,18.0,36,0.00,,,0.00,Wunderground v.1.15,2013-09-21 20:47:00,
2013-09-21 13:48:00,69.7,42.3,29.58,SSW,204,8.0,18.0,37,0.00,,,0.00,Wunderground v.1.15,2013-09-21 20:48:00,
2013-09-21 13:51:00,69.5,41.4,29.58,SW,226,6.0,11.0,36,0.00,,,0.00,Wunderground v.1.15,2013-09-21 20:51:00,
2013-09-21 13:52:00,69.5,41.4,29.58,WSW,252,10.0,11.0,36,0.00,,,0.00,Wunderground v.1.15,2013-09-21 20:52:00,
2013-09-21 13:53:00,69.4,41.3,29.58,WSW,238,9.0,13.0,36,0.00,,,0.00,Wunderground v.1.15,2013-09-21 20:53:00,
2013-09-21 13:56:00,69.3,41.9,29.58,SW,217,7.0,13.0,37,0.00,,,0.00,Wunderground v.1.15,2013-09-21 20:56:00,
2013-09-21 13:57:00,69.4,42.0,29.58,SSW,206,5.0,13.0,37,0.00,,,0.00,Wunderground v.1.15,2013-09-21 20:57:00,
2013-09-21 13:59:00,69.4,42.0,29.58,SW,217,5.0,14.0,37,0.00,,,0.00,Wunderground v.1.15,2013-09-21 20:59:00,
2013-09-21 14:01:00,69.6,42.2,29.57,SW,219,5.0,14.0,37,0.00,,,0.00,Wunderground v.1.15,2013-09-21 21:01:00,
2013-09-21 14:03:00,69.8,43.0,29.57,SW,231,9.0,14.0,38,0.00,,,0.00,Wunderground v.1.15,2013-09-21 21:03:00,
2013-09-21 14:06:00,70.0,42.5,29.57,SW,222,10.0,16.0,37,0.00,,,0.00,Wunderground v.1.15,2013-09-21 21:06:00,
2013-09-21 14:08:00,69.7,42.3,29.57,SW,225,4.0,16.0,37,0.00,,,0.00,Wunderground v.1.15,2013-09-21 21:08:00,
2013-09-21 14:09:00,69.7,42.3,29.57,SW,219,9.0,16.0,37,0.00,,,0.00,Wunderground v.1.15,2013-09-21 21:09:00,
2013-09-21 14:11:00,69.7,42.3,29.57,SSW,206,8.0,11.0,37,0.00,,,0.00,Wunderground v.1.15,2013-09-21 21:11:00,
2013-09-21 14:13:00,69.7,42.3,29.57,SW,216,5.0,11.0,37,0.00,,,0.00,Wunderground v.1.15,2013-09-21 21:13:00,
2013-09-21 14:14:00,69.8,42.3,29.57,SSW,195,9.0,14.0,37,0.00,,,0.00,Wunderground v.1.15,2013-09-21 21:14:00,
2013-09-21 14:16:00,69.6,42.2,29.57,SSW,213,10.0,18.0,37,0.00,,,0.00,Wunderground v.1.15,2013-09-21 21:16:00,
2013-09-21 14:18:00,69.4,42.0,29.57,SSW,198,7.0,18.0,37,0.00,,,0.00,Wunderground v.1.15,2013-09-21 21:18:00,
2013-09-21 14:19:00,69.4,42.0,29.57,SSW,208,5.0,18.0,37,0.00,,,0.00,Wunderground v.1.15,2013-09-21 21:19:00,
2013-09-21 14:21:00,69.5,43.4,29.57,SW,223,8.0,13.0,39,0.00,,,0.00,Wunderground v.1.15,2013-09-21 21:21:00,
2013-09-21 14:23:00,69.8,43.0,29.57,SSW,192,12.0,16.0,38,0.00,,,0.00,Wunderground v.1.15,2013-09-21 21:23:00,
2013-09-21 14:24:00,69.8,43.0,29.57,SW,229,11.0,16.0,38,0.00,,,0.00,Wunderground v.1.15,2013-09-21 21:24:00,
2013-09-21 14:25:00,69.9,43.1,29.57,SW,230,8.0,16.0,38,0.00,,,0.00,Wunderground v.1.15,2013-09-21 21:25:00,
2013-09-21 14:26:00,69.8,43.7,29.57,SSW,208,11.0,16.0,39,0.00,,,0.00,Wunderground v.1.15,2013-09-21 21:26:00,
2013-09-21 14:28:00,69.9,43.1,29.57,South,188,12.0,17.0,38,0.00,,,0.00,Wunderground v.1.15,2013-09-21 21:28:00,
2013-09-21 14:29:00,69.9,43.1,29.57,SSW,203,13.0,17.0,38,0.00,,,0.00,Wunderground v.1.15,2013-09-21 21:29:00,
2013-09-21 14:30:00,69.9,43.1,29.57,SSW,201,8.0,17.0,38,0.00,,,0.00,Wunderground v.1.15,2013-09-21 21:30:00,
2013-09-21 14:31:00,69.7,43.6,29.57,SSW,207,14.0,21.0,39,0.00,,,0.00,Wunderground v.1.15,2013-09-21 21:31:00,
2013-09-21 14:34:00,69.6,42.9,29.56,SSW,212,16.0,21.0,38,0.00,,,0.00,Wunderground v.1.15,2013-09-21 21:34:00,
2013-09-21 14:35:00,69.7,43.6,29.56,SSW,208,14.0,21.0,39,0.00,,,0.00,Wunderground v.1.15,2013-09-21 21:35:00,
2013-09-21 14:36:00,69.8,43.7,29.56,SSW,200,10.0,21.0,39,0.00,,,0.00,Wunderground v.1.15,2013-09-21 21:36:00,
2013-09-21 14:39:00,70.2,43.4,29.56,SSW,194,5.0,21.0,38,0.00,,,0.00,Wunderground v.1.15,2013-09-21 21:39:00,
2013-09-21 14:40:00,70.3,43.5,29.56,South,180,10.0,21.0,38,0.00,,,0.00,Wunderground v.1.15,2013-09-21 21:40:00,
2013-09-21 14:41:00,70.4,43.6,29.56,South,182,6.0,15.0,38,0.00,,,0.00,Wunderground v.1.15,2013-09-21 21:41:00,
2013-09-21 14:45:00,70.9,43.3,29.56,SSW,213,15.0,15.0,37,0.00,,,0.00,Wunderground v.1.15,2013-09-21 21:45:00,
2013-09-21 14:46:00,70.9,44.0,29.56,South,173,9.0,15.0,38,0.00,,,0.00,Wunderground v.1.15,2013-09-21 21:46:00,
2013-09-21 14:47:00,71.0,43.4,29.56,South,186,14.0,18.0,37,0.00,,,0.00,Wunderground v.1.15,2013-09-21 21:47:00,
2013-09-21 14:50:00,70.8,43.9,29.56,SW,222,11.0,20.0,38,0.00,,,0.00,Wunderground v.1.15,2013-09-21 21:50:00,
2013-09-21 14:51:00,70.8,43.9,29.56,WSW,239,14.0,16.0,38,0.00,,,0.00,Wunderground v.1.15,2013-09-21 21:51:00,
2013-09-21 14:52:00,70.7,43.8,29.56,SW,230,10.0,16.0,38,0.00,,,0.00,Wunderground v.1.15,2013-09-21 21:52:00,
2013-09-21 14:55:00,70.6,43.7,29.56,SSW,207,4.0,16.0,38,0.00,,,0.00,Wunderground v.1.15,2013-09-21 21:55:00,
2013-09-21 14:56:00,70.5,43.7,29.56,SSW,205,7.0,16.0,38,0.00,,,0.00,Wunderground v.1.15,2013-09-21 21:56:00,
2013-09-21 14:57:00,70.5,44.3,29.56,South,184,11.0,16.0,39,0.00,,,0.00,Wunderground v.1.15,2013-09-21 21:57:00,
2013-09-21 15:00:00,70.8,43.9,29.56,South,188,11.0,11.0,38,0.00,,,0.00,Wunderground v.1.15,2013-09-21 22:00:00,
2013-09-21 15:01:00,70.9,44.7,29.56,South,186,10.0,18.0,39,0.00,,,0.00,Wunderground v.1.15,2013-09-21 22:01:00,
2013-09-21 15:02:00,71.0,43.4,29.56,SSW,195,21.0,21.0,37,0.00,,,0.00,Wunderground v.1.15,2013-09-21 22:02:00,
2013-09-21 15:05:00,71.1,44.2,29.56,SSW,203,7.0,21.0,38,0.00,,,0.00,Wunderground v.1.15,2013-09-21 22:05:00,
2013-09-21 15:06:00,71.2,44.3,29.56,SSW,198,6.0,21.0,38,0.00,,,0.00,Wunderground v.1.15,2013-09-21 22:06:00,
2013-09-21 15:07:00,71.2,43.6,29.56,SSW,205,11.0,21.0,37,0.00,,,0.00,Wunderground v.1.15,2013-09-21 22:07:00,
2013-09-21 15:10:00,71.3,43.7,29.56,SSW,202,13.0,14.0,37,0.00,,,0.00,Wunderground v.1.15,2013-09-21 22:10:00,
2013-09-21 15:11:00,71.3,43.7,29.56,SSW,195,11.0,15.0,37,0.00,,,0.00,Wunderground v.1.15,2013-09-21 22:11:00,
2013-09-21 15:12:00,71.3,43.7,29.56,SSW,194,12.0,16.0,37,0.00,,,0.00,Wunderground v.1.15,2013-09-21 22:12:00,
2013-09-21 15:16:00,71.5,43.8,29.56,SSW,211,12.0,20.0,37,0.00,,,0.00,Wunderground v.1.15,2013-09-21 22:16:00,
2013-09-21 15:17:00,71.4,43.8,29.56,SSW,204,10.0,24.0,37,0.00,,,0.00,Wunderground v.1.15,2013-09-21 22:17:00,
2013-09-21 15:21:00,71.2,42.9,29.56,SSW,200,6.0,21.0,36,0.00,,,0.00,Wunderground v.1.15,2013-09-21 22:21:00,
2013-09-21 15:22:00,71.0,43.4,29.56,South,175,12.0,21.0,37,0.00,,,0.00,Wunderground v.1.15,2013-09-21 22:22:00,
2013-09-21 15:23:00,71.0,43.4,29.56,SSE,165,9.0,21.0,37,0.00,,,0.00,Wunderground v.1.15,2013-09-21 22:23:00,
2013-09-21 15:26:00,70.9,42.6,29.56,SSW,197,8.0,21.0,36,0.00,,,0.00,Wunderground v.1.15,2013-09-21 22:26:00,
2013-09-21 15:27:00,70.6,43.1,29.56,SSW,206,6.0,21.0,37,0.00,,,0.00,Wunderground v.1.15,2013-09-21 22:27:00,
2013-09-21 15:28:00,70.6,43.7,29.56,South,186,4.0,21.0,38,0.00,,,0.00,Wunderground v.1.15,2013-09-21 22:28:00,
2013-09-21 15:32:00,70.6,44.4,29.56,South,171,10.0,13.0,39,0.00,,,0.00,Wunderground v.1.15,2013-09-21 22:32:00,
2013-09-21 15:33:00,70.7,44.5,29.56,South,171,13.0,13.0,39,0.00,,,0.00,Wunderground v.1.15,2013-09-21 22:33:00,
2013-09-21 15:37:00,71.3,43.7,29.55,SSW,194,7.0,14.0,37,0.00,,,0.00,Wunderground v.1.15,2013-09-21 22:37:00,
2013-09-21 15:38:00,71.3,44.4,29.56,South,190,11.0,14.0,38,0.00,,,0.00,Wunderground v.1.15,2013-09-21 22:38:00,
2013-09-21 15:42:00,72.0,44.3,29.55,SSW,194,8.0,18.0,37,0.00,,,0.00,Wunderground v.1.15,2013-09-21 22:42:00,
2013-09-21 15:43:00,72.0,44.3,29.56,South,191,10.0,18.0,37,0.00,,,0.00,Wunderground v.1.15,2013-09-21 22:43:00,
2013-09-21 15:44:00,72.1,45.1,29.56,South,188,18.0,21.0,38,0.00,,,0.00,Wunderground v.1.15,2013-09-21 22:44:00,
2013-09-21 15:48:00,72.2,45.2,29.56,South,190,8.0,21.0,38,0.00,,,0.00,Wunderground v.1.15,2013-09-21 22:48:00,
2013-09-21 15:49:00,72.3,44.6,29.56,SSW,208,10.0,21.0,37,0.00,,,0.00,Wunderground v.1.15,2013-09-21 22:49:00,
2013-09-21 15:52:00,72.0,42.1,29.56,SSW,202,5.0,17.0,34,0.00,,,0.00,Wunderground v.1.15,2013-09-21 22:52:00,
2013-09-21 15:53:00,72.0,42.8,29.56,SSW,203,7.0,17.0,35,0.00,,,0.00,Wunderground v.1.15,2013-09-21 22:53:00,
2013-09-21 15:54:00,71.9,43.5,29.56,SW,214,8.0,17.0,36,0.00,,,0.00,Wunderground v.1.15,2013-09-21 22:54:00,
2013-09-21 15:58:00,72.2,43.8,29.56,SSW,192,2.0,17.0,36,0.00,,,0.00,Wunderground v.1.15,2013-09-21 22:58:00,
2013-09-21 15:59:00,72.3,43.8,29.56,SSW,202,12.0,17.0,36,0.00,,,0.00,Wunderground v.1.15,2013-09-21 22:59:00,
2013-09-21 16:03:00,72.4,43.2,29.56,South,190,5.0,12.0,35,0.00,,,0.00,Wunderground v.1.15,2013-09-21 23:03:00,
2013-09-21 16:04:00,72.4,43.2,29.55,SSW,198,11.0,12.0,35,0.00,,,0.00,Wunderground v.1.15,2013-09-21 23:04:00,
2013-09-21 16:08:00,72.5,43.3,29.55,SW,217,8.0,14.0,35,0.00,,,0.00,Wunderground v.1.15,2013-09-21 23:08:00,
2013-09-21 16:09:00,72.5,42.5,29.56,SSW,202,11.0,14.0,34,0.00,,,0.00,Wunderground v.1.15,2013-09-21 23:09:00,
2013-09-21 16:13:00,72.2,43.0,29.56,SSW,194,9.0,15.0,35,0.00,,,0.00,Wunderground v.1.15,2013-09-21 23:13:00,
2013-09-21 16:14:00,72.1,42.9,29.55,SW,236,5.0,15.0,35,0.00,,,0.00,Wunderground v.1.15,2013-09-21 23:14:00,
2013-09-21 16:15:00,72.1,42.9,29.55,SW,230,11.0,15.0,35,0.00,,,0.00,Wunderground v.1.15,2013-09-21 23:15:00,
2013-09-21 16:18:00,71.9,42.8,29.55,SW,216,4.0,15.0,35,0.00,,,0.00,Wunderground v.1.15,2013-09-21 23:18:00,
2013-09-21 16:20:00,71.9,43.5,29.55,SW,214,2.0,15.0,36,0.00,,,0.00,Wunderground v.1.15,2013-09-21 23:20:00,
2013-09-21 16:21:00,72.0,43.6,29.55,SW,230,9.0,12.0,36,0.00,,,0.00,Wunderground v.1.15,2013-09-21 23:21:00,
2013-09-21 16:23:00,71.9,43.5,29.55,SW,232,15.0,18.0,36,0.00,,,0.00,Wunderground v.1.15,2013-09-21 23:23:00,
2013-09-21 16:25:00,71.7,43.3,29.55,SSW,209,7.0,18.0,36,0.00,,,0.00,Wunderground v.1.15,2013-09-21 23:25:00,
2013-09-21 16:26:00,71.7,43.3,29.55,SSW,205,12.0,18.0,36,0.00,,,0.00,Wunderground v.1.15,2013-09-21 23:26:00,
2013-09-21 16:27:00,71.7,43.3,29.55,South,189,9.0,18.0,36,0.00,,,0.00,Wunderground v.1.15,2013-09-21 23:27:00,
2013-09-21 16:28:00,71.7,42.6,29.55,SSW,213,12.0,18.0,35,0.00,,,0.00,Wunderground v.1.15,2013-09-21 23:28:00,
2013-09-21 16:29:00,71.7,42.6,29.55,SW,214,9.0,18.0,35,0.00,,,0.00,Wunderground v.1.15,2013-09-21 23:29:00,
2013-09-21 16:30:00,71.7,42.6,29.55,South,181,9.0,18.0,35,0.00,,,0.00,Wunderground v.1.15,2013-09-21 23:30:00,
2013-09-21 16:31:00,71.7,42.6,29.55,SW,230,7.0,12.0,35,0.00,,,0.00,Wunderground v.1.15,2013-09-21 23:31:00,
2013-09-21 16:32:00,71.7,42.6,29.55,SSW,192,11.0,12.0,35,0.00,,,0.00,Wunderground v.1.15,2013-09-21 23:32:00,
2013-09-21 16:34:00,71.7,42.6,29.55,South,176,15.0,15.0,35,0.00,,,0.00,Wunderground v.1.15,2013-09-21 23:34:00,
2013-09-21 16:35:00,71.7,42.6,29.55,SSW,209,6.0,15.0,35,0.00,,,0.00,Wunderground v.1.15,2013-09-21 23:35:00,
2013-09-21 16:36:00,71.8,42.7,29.55,SSW,193,6.0,15.0,35,0.00,,,0.00,Wunderground v.1.15,2013-09-21 23:36:00,
2013-09-21 16:37:00,71.9,42.8,29.55,SSW,202,6.0,15.0,35,0.00,,,0.00,Wunderground v.1.15,2013-09-21 23:37:00,
2013-09-21 16:39:00,72.0,42.1,29.55,SSW,196,8.0,15.0,34,0.00,,,0.00,Wunderground v.1.15,2013-09-21 23:39:00,
2013-09-21 16:40:00,72.0,42.8,29.55,SSW,205,7.0,15.0,35,0.00,,,0.00,Wunderground v.1.15,2013-09-21 23:40:00,
2013-09-21 16:41:00,72.0,43.6,29.55,SSW,202,14.0,16.0,36,0.00,,,0.00,Wunderground v.1.15,2013-09-21 23:41:00,
2013-09-21 16:43:00,72.0,42.8,29.55,SSW,196,12.0,16.0,35,0.00,,,0.00,Wunderground v.1.15,2013-09-21 23:43:00,
2013-09-21 16:44:00,71.9,42.8,29.55,SW,223,5.0,16.0,35,0.00,,,0.00,Wunderground v.1.15,2013-09-21 23:44:00,
2013-09-21 16:45:00,71.8,42.7,29.55,SSW,206,8.0,16.0,35,0.00,,,0.00,Wunderground v.1.15,2013-09-21 23:45:00,
2013-09-21 16:47:00,71.7,43.3,29.55,SSW,209,10.0,16.0,36,0.00,,,0.00,Wunderground v.1.15,2013-09-21 23:47:00,
2013-09-21 16:49:00,71.6,42.5,29.55,South,181,9.0,17.0,35,0.00,,,0.00,Wunderground v.1.15,2013-09-21 23:49:00,
2013-09-21 16:50:00,71.6,43.2,29.55,South,174,12.0,17.0,36,0.00,,,0.00,Wunderground v.1.15,2013-09-21 23:50:00,
2013-09-21 16:52:00,71.7,43.3,29.55,SW,235,11.0,11.0,36,0.00,,,0.00,Wunderground v.1.15,2013-09-21 23:52:00,
2013-09-21 16:54:00,71.7,42.6,29.55,SSW,213,10.0,13.0,35,0.00,,,0.00,Wunderground v.1.15,2013-09-21 23:54:00,
2013-09-21 16:55:00,71.8,43.4,29.55,SW,219,9.0,14.0,36,0.00,,,0.00,Wunderground v.1.15,2013-09-21 23:55:00,
2013-09-21 16:57:00,71.9,43.5,29.55,SSW,209,7.0,14.0,36,0.00,,,0.00,Wunderground v.1.15,2013-09-21 23:57:00,
2013-09-21 16:59:00,71.9,44.2,29.55,SSW,205,6.0,14.0,37,0.00,,,0.00,Wunderground v.1.15,2013-09-21 23:59:00,
2013-09-21 17:00:00,71.9,43.5,29.55,South,188,10.0,14.0,36,0.00,,,0.00,Wunderground v.1.15,2013-09-22 00:00:00,
2013-09-21 17:02:00,71.8,42.7,29.55,SSW,211,8.0,15.0,35,0.00,,,0.00,Wunderground v.1.15,2013-09-22 00:02:00,
2013-09-21 17:04:00,71.8,43.4,29.55,SSW,194,7.0,15.0,36,0.00,,,0.00,Wunderground v.1.15,2013-09-22 00:04:00,
2013-09-21 17:05:00,71.8,43.4,29.55,SSW,192,7.0,15.0,36,0.00,,,0.00,Wunderground v.1.15,2013-09-22 00:05:00,
2013-09-21 17:07:00,71.8,43.4,29.55,SSW,205,5.0,15.0,36,0.00,,,0.00,Wunderground v.1.15,2013-09-22 00:07:00,
2013-09-21 17:09:00,71.8,43.4,29.55,SSW,201,10.0,15.0,36,0.00,,,0.00,Wunderground v.1.15,2013-09-22 00:09:00,
2013-09-21 17:10:00,71.8,43.4,29.55,SSW,201,8.0,15.0,36,0.00,,,0.00,Wunderground v.1.15,2013-09-22 00:10:00,
2013-09-21 17:12:00,71.8,44.1,29.55,SW,221,4.0,12.0,37,0.00,,,0.00,Wunderground v.1.15,2013-09-22 00:12:00,
2013-09-21 17:15:00,72.0,43.6,29.55,SSW,203,14.0,17.0,36,0.00,,,0.00,Wunderground v.1.15,2013-09-22 00:15:00,
2013-09-21 17:18:00,72.0,42.8,29.55,SSW,196,5.0,17.0,35,0.00,,,0.00,Wunderground v.1.15,2013-09-22 00:18:00,
2013-09-21 17:20:00,71.9,43.5,29.55,SSW,208,13.0,15.0,36,0.00,,,0.00,Wunderground v.1.15,2013-09-22 00:20:00,
2013-09-21 17:23:00,71.9,43.5,29.55,SSW,200,8.0,15.0,36,0.00,,,0.00,Wunderground v.1.15,2013-09-22 00:23:00,
2013-09-21 17:25:00,71.9,44.2,29.55,South,181,5.0,15.0,37,0.00,,,0.00,Wunderground v.1.15,2013-09-22 00:25:00,
2013-09-21 17:26:00,71.9,44.2,29.55,South,175,11.0,15.0,37,0.00,,,0.00,Wunderground v.1.15,2013-09-22 00:26:00,
2013-09-21 17:28:00,72.0,43.6,29.55,South,174,15.0,15.0,36,0.00,,,0.00,Wunderground v.1.15,2013-09-22 00:28:00,
2013-09-21 17:30:00,71.8,43.4,29.55,South,184,10.0,13.0,36,0.00,,,0.00,Wunderground v.1.15,2013-09-22 00:30:00,
2013-09-21 17:31:00,71.8,43.4,29.55,SSW,194,12.0,13.0,36,0.00,,,0.00,Wunderground v.1.15,2013-09-22 00:31:00,
2013-09-21 17:33:00,71.8,44.1,29.55,SSW,195,6.0,13.0,37,0.00,,,0.00,Wunderground v.1.15,2013-09-22 00:33:00,
2013-09-21 17:36:00,71.8,43.4,29.55,South,169,8.0,13.0,36,0.00,,,0.00,Wunderground v.1.15,2013-09-22 00:36:00,
2013-09-21 17:40:00,71.7,44.0,29.54,SSE,166,9.0,13.0,37,0.00,,,0.00,Wunderground v.1.15,2013-09-22 00:40:00,
2013-09-21 17:41:00,71.7,44.0,29.55,South,181,7.0,11.0,37,0.00,,,0.00,Wunderground v.1.15,2013-09-22 00:41:00,
2013-09-21 17:42:00,71.7,44.0,29.55,South,179,8.0,12.0,37,0.00,,,0.00,Wunderground v.1.15,2013-09-22 00:42:00,
2013-09-21 17:45:00,71.6,43.9,29.55,SSE,168,11.0,14.0,37,0.00,,,0.00,Wunderground v.1.15,2013-09-22 00:45:00,
2013-09-21 17:46:00,71.6,43.9,29.55,South,188,7.0,14.0,37,0.00,,,0.00,Wunderground v.1.15,2013-09-22 00:46:00,
2013-09-21 17:47:00,71.5,44.5,29.55,South,177,13.0,14.0,38,0.00,,,0.00,Wunderground v.1.15,2013-09-22 00:47:00,
2013-09-21 17:51:00,71.5,44.5,29.55,SSE,165,7.0,12.0,38,0.00,,,0.00,Wunderground v.1.15,2013-09-22 00:51:00,
2013-09-21 17:52:00,71.5,44.5,29.55,South,174,10.0,12.0,38,0.00,,,0.00,Wunderground v.1.15,2013-09-22 00:52:00,
2013-09-21 17:56:00,71.4,44.5,29.55,South,186,10.0,13.0,38,0.00,,,0.00,Wunderground v.1.15,2013-09-22 00:56:00,
2013-09-21 17:57:00,71.4,44.5,29.55,South,179,9.0,13.0,38,0.00,,,0.00,Wunderground v.1.15,2013-09-22 00:57:00,
2013-09-21 18:01:00,71.2,44.3,29.55,South,182,2.0,9.0,38,0.00,,,0.00,Wunderground v.1.15,2013-09-22 01:01:00,
2013-09-21 18:02:00,71.2,44.3,29.55,South,178,11.0,11.0,38,0.00,,,0.00,Wunderground v.1.15,2013-09-22 01:02:00,
2013-09-21 18:06:00,71.2,44.3,29.55,South,171,10.0,12.0,38,0.00,,,0.00,Wunderground v.1.15,2013-09-22 01:06:00,
2013-09-21 18:07:00,71.1,44.2,29.55,SSE,167,6.0,12.0,38,0.00,,,0.00,Wunderground v.1.15,2013-09-22 01:07:00,
2013-09-21 18:08:00,71.0,44.1,29.55,South,184,6.0,13.0,38,0.00,,,0.00,Wunderground v.1.15,2013-09-22 01:08:00,
2013-09-21 18:11:00,70.8,44.6,29.55,South,189,8.0,12.0,39,0.00,,,0.00,Wunderground v.1.15,2013-09-22 01:11:00,
2013-09-21 18:12:00,70.8,44.6,29.55,South,186,6.0,12.0,39,0.00,,,0.00,Wunderground v.1.15,2013-09-22 01:12:00,
2013-09-21 18:13:00,70.7,44.5,29.55,South,180,9.0,12.0,39,0.00,,,0.00,Wunderground v.1.15,2013-09-22 01:13:00,
2013-09-21 18:17:00,70.4,44.9,29.55,SSW,192,5.0,12.0,40,0.00,,,0.00,Wunderground v.1.15,2013-09-22 01:17:00,
2013-09-21 18:18:00,70.1,44.6,29.55,South,184,7.0,12.0,40,0.00,,,0.00,Wunderground v.1.15,2013-09-22 01:18:00,
2013-09-21 18:22:00,69.7,44.9,29.55,South,184,7.0,9.0,41,0.00,,,0.00,Wunderground v.1.15,2013-09-22 01:22:00,
2013-09-21 18:24:00,69.4,45.3,29.55,South,188,4.0,11.0,42,0.00,,,0.00,Wunderground v.1.15,2013-09-22 01:24:00,
2013-09-21 18:27:00,68.8,45.4,29.55,South,188,7.0,11.0,43,0.00,,,0.00,Wunderground v.1.15,2013-09-22 01:27:00,
2013-09-21 18:30:00,68.3,45.5,29.55,SSW,201,5.0,11.0,44,0.00,,,0.00,Wunderground v.1.15,2013-09-22 01:30:00,
2013-09-21 18:32:00,68.1,45.4,29.55,SSW,207,4.0,7.0,44,0.00,,,0.00,Wunderground v.1.15,2013-09-22 01:32:00,
2013-09-21 18:33:00,68.0,45.3,29.55,SSW,206,2.0,7.0,44,0.00,,,0.00,Wunderground v.1.15,2013-09-22 01:33:00,
2013-09-21 18:35:00,67.9,45.2,29.55,SSW,201,3.0,8.0,44,0.00,,,0.00,Wunderground v.1.15,2013-09-22 01:35:00,
2013-09-21 18:37:00,67.8,45.7,29.55,SSW,203,6.0,9.0,45,0.00,,,0.00,Wunderground v.1.15,2013-09-22 01:37:00,
2013-09-21 18:38:00,67.7,45.6,29.55,SSW,209,6.0,9.0,45,0.00,,,0.00,Wunderground v.1.15,2013-09-22 01:38:00,
2013-09-21 18:40:00,67.5,45.4,29.55,SSW,199,5.0,9.0,45,0.00,,,0.00,Wunderground v.1.15,2013-09-22 01:40:00,
2013-09-21 18:42:00,67.3,45.2,29.55,SSW,199,6.0,7.0,45,0.00,,,0.00,Wunderground v.1.15,2013-09-22 01:42:00,
2013-09-21 18:43:00,67.2,45.1,29.55,SSW,196,6.0,8.0,45,0.00,,,0.00,Wunderground v.1.15,2013-09-22 01:43:00,
2013-09-21 18:44:00,67.2,45.7,29.55,SSW,192,5.0,8.0,46,0.00,,,0.00,Wunderground v.1.15,2013-09-22 01:44:00,
2013-09-21 18:45:00,67.1,45.6,29.55,SSW,194,5.0,8.0,46,0.00,,,0.00,Wunderground v.1.15,2013-09-22 01:45:00,
2013-09-21 18:47:00,66.9,45.4,29.55,SSW,198,6.0,8.0,46,0.00,,,0.00,Wunderground v.1.15,2013-09-22 01:47:00,
2013-09-21 18:48:00,66.9,45.4,29.55,SSW,198,6.0,8.0,46,0.00,,,0.00,Wunderground v.1.15,2013-09-22 01:48:00,
2013-09-21 18:49:00,66.8,45.3,29.55,SSW,199,4.0,8.0,46,0.00,,,0.00,Wunderground v.1.15,2013-09-22 01:49:00,
2013-09-21 18:50:00,66.7,45.8,29.55,SSW,201,5.0,8.0,47,0.00,,,0.00,Wunderground v.1.15,2013-09-22 01:50:00,
2013-09-21 18:52:00,66.5,45.6,29.55,SSW,201,4.0,7.0,47,0.00,,,0.00,Wunderground v.1.15,2013-09-22 01:52:00,
2013-09-21 18:53:00,66.4,45.5,29.55,SSW,202,3.0,7.0,47,0.00,,,0.00,Wunderground v.1.15,2013-09-22 01:53:00,
2013-09-21 18:54:00,66.3,46.0,29.55,SSW,201,6.0,7.0,48,0.00,,,0.00,Wunderground v.1.15,2013-09-22 01:54:00,
2013-09-21 18:56:00,65.9,45.6,29.56,SSW,207,4.0,7.0,48,0.00,,,0.00,Wunderground v.1.15,2013-09-22 01:56:00,
2013-09-21 18:57:00,65.7,46.0,29.55,SSW,208,1.0,7.0,49,0.00,,,0.00,Wunderground v.1.15,2013-09-22 01:57:00,
2013-09-21 18:58:00,65.6,45.9,29.55,SSW,208,1.0,7.0,49,0.00,,,0.00,Wunderground v.1.15,2013-09-22 01:58:00,
2013-09-21 18:59:00,65.5,45.8,29.55,SSW,208,2.0,7.0,49,0.00,,,0.00,Wunderground v.1.15,2013-09-22 01:59:00,
2013-09-21 19:02:00,65.1,46.0,29.55,SW,227,4.0,6.0,50,0.00,,,0.00,Wunderground v.1.15,2013-09-22 02:02:00,
2013-09-21 19:04:00,64.9,45.8,29.55,SW,233,6.0,6.0,50,0.00,,,0.00,Wunderground v.1.15,2013-09-22 02:04:00,
2013-09-21 19:07:00,64.9,46.3,29.55,WSW,238,4.0,6.0,51,0.00,,,0.00,Wunderground v.1.15,2013-09-22 02:07:00,
2013-09-21 19:08:00,64.9,46.3,29.55,WSW,238,4.0,6.0,51,0.00,,,0.00,Wunderground v.1.15,2013-09-22 02:08:00,
2013-09-21 19:09:00,64.9,46.3,29.55,WSW,238,4.0,6.0,51,0.00,,,0.00,Wunderground v.1.15,2013-09-22 02:09:00,
2013-09-21 19:12:00,64.8,48.2,29.55,WSW,252,2.0,5.0,55,0.00,,,0.00,Wunderground v.1.15,2013-09-22 02:12:00,
2013-09-21 19:13:00,64.8,47.8,29.55,WSW,252,3.0,5.0,54,0.00,,,0.00,Wunderground v.1.15,2013-09-22 02:13:00,
2013-09-21 19:14:00,64.8,47.8,29.55,WSW,252,2.0,5.0,54,0.00,,,0.00,Wunderground v.1.15,2013-09-22 02:14:00,
2013-09-21 19:15:00,64.7,47.7,29.56,WSW,252,2.0,5.0,54,0.00,,,0.00,Wunderground v.1.15,2013-09-22 02:15:00,
2013-09-21 19:17:00,64.5,48.0,29.55,WSW,252,3.0,5.0,55,0.00,,,0.00,Wunderground v.1.15,2013-09-22 02:17:00,
2013-09-21 19:18:00,64.5,48.4,29.56,WSW,252,1.0,5.0,56,0.00,,,0.00,Wunderground v.1.15,2013-09-22 02:18:00,
2013-09-21 19:19:00,64.5,50.3,29.56,WSW,252,1.0,5.0,60,0.00,,,0.00,Wunderground v.1.15,2013-09-22 02:19:00,
2013-09-21 19:20:00,64.5,50.7,29.55,WSW,252,2.0,5.0,61,0.00,,,0.00,Wunderground v.1.15,2013-09-22 02:20:00,
2013-09-21 19:23:00,64.7,53.5,29.56,WSW,252,2.0,3.0,67,0.00,,,0.00,Wunderground v.1.15,2013-09-22 02:23:00,
2013-09-21 19:25:00,64.5,51.2,29.56,WSW,252,2.0,3.0,62,0.00,,,0.00,Wunderground v.1.15,2013-09-22 02:25:00,
2013-09-21 19:28:00,63.8,47.3,29.56,West,271,4.0,4.0,55,0.00,,,0.00,Wunderground v.1.15,2013-09-22 02:28:00,
2013-09-21 19:30:00,63.5,47.0,29.56,West,279,3.0,4.0,55,0.00,,,0.00,Wunderground v.1.15,2013-09-22 02:30:00,
2013-09-21 19:33:00,62.9,47.4,29.56,WNW,288,4.0,4.0,57,0.00,,,0.00,Wunderground v.1.15,2013-09-22 02:33:00,
2013-09-21 19:35:00,62.6,46.7,29.56,WNW,290,2.0,4.0,56,0.00,,,0.00,Wunderground v.1.15,2013-09-22 02:35:00,
2013-09-21 19:38:00,61.9,47.9,29.56,WNW,292,2.0,4.0,60,0.00,,,0.00,Wunderground v.1.15,2013-09-22 02:38:00,
2013-09-21 19:39:00,61.7,47.7,29.56,WNW,292,3.0,4.0,60,0.00,,,0.00,Wunderground v.1.15,2013-09-22 02:39:00,
2013-09-21 19:40:00,61.5,46.6,29.56,WNW,294,3.0,4.0,58,0.00,,,0.00,Wunderground v.1.15,2013-09-22 02:40:00,
2013-09-21 19:41:00,61.4,47.4,29.56,WNW,296,3.0,4.0,60,0.00,,,0.00,Wunderground v.1.15,2013-09-22 02:41:00,
2013-09-21 19:43:00,61.0,47.4,29.56,WNW,296,2.0,4.0,61,0.00,,,0.00,Wunderground v.1.15,2013-09-22 02:43:00,
2013-09-21 19:44:00,60.7,47.6,29.56,WNW,296,1.0,4.0,62,0.00,,,0.00,Wunderground v.1.15,2013-09-22 02:44:00,
2013-09-21 19:45:00,60.5,47.4,29.56,WNW,296,1.0,4.0,62,0.00,,,0.00,Wunderground v.1.15,2013-09-22 02:45:00,
2013-09-21 19:46:00,60.1,47.9,29.56,WNW,297,3.0,4.0,64,0.00,,,0.00,Wunderground v.1.15,2013-09-22 02:46:00,
2013-09-21 19:49:00,59.5,47.3,29.57,WNW,297,1.0,4.0,64,0.00,,,0.00,Wunderground v.1.15,2013-09-22 02:49:00,
2013-09-21 19:50:00,59.2,47.0,29.56,WNW,297,0.0,2.0,64,0.00,,,0.00,Wunderground v.1.15,2013-09-22 02:50:00,
2013-09-21 19:51:00,59.1,47.3,29.57,WNW,297,0.0,2.0,65,0.00,,,0.00,Wunderground v.1.15,2013-09-22 02:51:00,
2013-09-21 19:54:00,58.7,47.8,29.56,WNW,297,0.0,2.0,67,0.00,,,0.00,Wunderground v.1.15,2013-09-22 02:54:00,
2013-09-21 19:55:00,58.6,47.3,29.56,WNW,297,1.0,2.0,66,0.00,,,0.00,Wunderground v.1.15,2013-09-22 02:55:00,
2013-09-21 19:56:00,58.6,47.3,29.56,WNW,297,2.0,2.0,66,0.00,,,0.00,Wunderground v.1.15,2013-09-22 02:56:00,
2013-09-21 19:59:00,58.8,46.6,29.57,WNW,297,0.0,2.0,64,0.00,,,0.00,Wunderground v.1.15,2013-09-22 02:59:00,
2013-09-21 20:00:00,58.9,46.7,29.57,WNW,297,0.0,1.0,64,0.00,,,0.00,Wunderground v.1.15,2013-09-22 03:00:00,
2013-09-21 20:01:00,58.9,46.7,29.57,WNW,297,0.0,1.0,64,0.00,,,0.00,Wunderground v.1.15,2013-09-22 03:01:00,
2013-09-21 20:02:00,59.0,47.2,29.57,WNW,297,0.0,1.0,65,0.00,,,0.00,Wunderground v.1.15,2013-09-22 03:02:00,
2013-09-21 20:04:00,58.9,47.6,29.57,WNW,297,2.0,2.0,66,0.00,,,0.00,Wunderground v.1.15,2013-09-22 03:04:00,
2013-09-21 20:05:00,58.8,47.5,29.57,WNW,297,2.0,2.0,66,0.00,,,0.00,Wunderground v.1.15,2013-09-22 03:05:00,
2013-09-21 20:06:00,58.6,47.7,29.57,WNW,297,2.0,2.0,67,0.00,,,0.00,Wunderground v.1.15,2013-09-22 03:06:00,
2013-09-21 20:07:00,58.5,47.6,29.57,WNW,297,2.0,2.0,67,0.00,,,0.00,Wunderground v.1.15,2013-09-22 03:07:00,
2013-09-21 20:09:00,58.1,47.6,29.57,NW,307,3.0,4.0,68,0.00,,,0.00,Wunderground v.1.15,2013-09-22 03:09:00,
2013-09-21 20:10:00,57.8,47.3,29.57,NW,314,3.0,3.0,68,0.00,,,0.00,Wunderground v.1.15,2013-09-22 03:10:00,
2013-09-21 20:11:00,57.6,47.1,29.57,NW,315,4.0,4.0,68,0.00,,,0.00,Wunderground v.1.15,2013-09-22 03:11:00,
2013-09-21 20:12:00,57.5,47.4,29.57,NW,321,4.0,4.0,69,0.00,,,0.00,Wunderground v.1.15,2013-09-22 03:12:00,
2013-09-21 20:13:00,57.3,47.2,29.57,North,355,5.0,5.0,69,0.00,,,0.00,Wunderground v.1.15,2013-09-22 03:13:00,
2013-09-21 20:15:00,57.3,47.2,29.57,North,11,1.0,5.0,69,0.00,,,0.00,Wunderground v.1.15,2013-09-22 03:15:00,
2013-09-21 20:16:00,57.1,47.4,29.57,North,11,3.0,5.0,70,0.00,,,0.00,Wunderground v.1.15,2013-09-22 03:16:00,
2013-09-21 20:17:00,57.1,47.0,29.57,NNE,12,4.0,5.0,69,0.00,,,0.00,Wunderground v.1.15,2013-09-22 03:17:00,
2013-09-21 20:18:00,57.1,47.0,29.57,NNE,13,4.0,5.0,69,0.00,,,0.00,Wunderground v.1.15,2013-09-22 03:18:00,
2013-09-21 20:20:00,57.1,47.0,29.57,NNE,23,3.0,4.0,69,0.00,,,0.00,Wunderground v.1.15,2013-09-22 03:20:00,
2013-09-21 20:21:00,57.1,47.0,29.57,NNE,23,4.0,4.0,69,0.00,,,0.00,Wunderground v.1.15,2013-09-22 03:21:00,
2013-09-21 20:22:00,57.1,46.6,29.57,NNE,23,1.0,4.0,68,0.00,,,0.00,Wunderground v.1.15,2013-09-22 03:22:00,
2013-09-21 20:23:00,57.2,48.3,29.57,NNE,23,1.0,4.0,72,0.00,,,0.00,Wunderground v.1.15,2013-09-22 03:23:00,
2013-09-21 20:25:00,57.2,48.3,29.57,NNE,23,1.0,4.0,72,0.00,,,0.00,Wunderground v.1.15,2013-09-22 03:25:00,
2013-09-21 20:26:00,57.1,47.4,29.58,NNE,23,0.0,4.0,70,0.00,,,0.00,Wunderground v.1.15,2013-09-22 03:26:00,
2013-09-21 20:27:00,57.1,47.0,29.58,NNE,23,0.0,4.0,69,0.00,,,0.00,Wunderground v.1.15,2013-09-22 03:27:00,
2013-09-21 20:28:00,57.1,47.0,29.58,NNE,23,0.0,4.0,69,0.00,,,0.00,Wunderground v.1.15,2013-09-22 03:28:00,
2013-09-21 20:30:00,57.1,46.6,29.58,NNE,23,0.0,1.0,68,0.00,,,0.00,Wunderground v.1.15,2013-09-22 03:30:00,
2013-09-21 20:31:00,57.1,46.6,29.58,NNE,23,1.0,1.0,68,0.00,,,0.00,Wunderground v.1.15,2013-09-22 03:31:00,
2013-09-21 20:32:00,57.2,46.7,29.58,NNE,23,0.0,1.0,68,0.00,,,0.00,Wunderground v.1.15,2013-09-22 03:32:00,
2013-09-21 20:33:00,57.2,46.7,29.58,NNE,23,0.0,1.0,68,0.00,,,0.00,Wunderground v.1.15,2013-09-22 03:33:00,
2013-09-21 20:35:00,57.4,46.5,29.58,NNE,23,0.0,1.0,67,0.00,,,0.00,Wunderground v.1.15,2013-09-22 03:35:00,
2013-09-21 20:37:00,57.6,45.9,29.58,NNE,23,0.0,1.0,65,0.00,,,0.00,Wunderground v.1.15,2013-09-22 03:37:00,
2013-09-21 20:38:00,57.7,45.6,29.58,NNE,23,1.0,1.0,64,0.00,,,0.00,Wunderground v.1.15,2013-09-22 03:38:00,
2013-09-21 20:40:00,58.1,46.4,29.58,NNE,23,0.0,0.0,65,0.00,,,0.00,Wunderground v.1.15,2013-09-22 03:40:00,
2013-09-21 20:42:00,58.5,46.8,29.58,NNE,23,0.0,0.0,65,0.00,,,0.00,Wunderground v.1.15,2013-09-22 03:42:00,
2013-09-21 20:43:00,58.6,46.5,29.58,NNE,23,0.0,0.0,64,0.00,,,0.00,Wunderground v.1.15,2013-09-22 03:43:00,
2013-09-21 20:45:00,58.9,46.7,29.58,NNE,23,2.0,2.0,64,0.00,,,0.00,Wunderground v.1.15,2013-09-22 03:45:00,
2013-09-21 20:48:00,58.9,46.3,29.58,NNE,23,0.0,2.0,63,0.00,,,0.00,Wunderground v.1.15,2013-09-22 03:48:00,
2013-09-21 20:50:00,59.1,45.2,29.58,NNE,23,2.0,2.0,60,0.00,,,0.00,Wunderground v.1.15,2013-09-22 03:50:00,
2013-09-21 20:53:00,59.5,46.5,29.58,NNE,23,2.0,2.0,62,0.00,,,0.00,Wunderground v.1.15,2013-09-22 03:53:00,
2013-09-21 20:54:00,59.5,45.6,29.58,NNE,23,1.0,2.0,60,0.00,,,0.00,Wunderground v.1.15,2013-09-22 03:54:00,
2013-09-21 20:55:00,59.7,45.3,29.58,NNE,23,0.0,2.0,59,0.00,,,0.00,Wunderground v.1.15,2013-09-22 03:55:00,
2013-09-21 20:58:00,60.3,47.6,29.58,NNE,23,0.0,2.0,63,0.00,,,0.00,Wunderground v.1.15,2013-09-22 03:58:00,
2013-09-21 20:59:00,60.3,46.4,29.59,NNE,23,0.0,2.0,60,0.00,,,0.00,Wunderground v.1.15,2013-09-22 03:59:00,
2013-09-21 21:01:00,60.4,45.5,29.59,NNE,23,1.0,2.0,58,0.00,,,0.00,Wunderground v.1.15,2013-09-22 04:01:00,
2013-09-21 21:06:00,60.5,45.6,29.59,NNE,23,0.0,2.0,58,0.00,,,0.00,Wunderground v.1.15,2013-09-22 04:06:00,
2013-09-21 21:11:00,60.8,46.4,29.58,NNE,23,0.0,1.0,59,0.00,,,0.00,Wunderground v.1.15,2013-09-22 04:11:00,
2013-09-21 21:16:00,61.1,45.7,29.58,NNE,23,0.0,1.0,57,0.00,,,0.00,Wunderground v.1.15,2013-09-22 04:16:00,
2013-09-21 21:17:00,61.1,45.7,29.58,NNE,23,0.0,1.0,57,0.00,,,0.00,Wunderground v.1.15,2013-09-22 04:17:00,
2013-09-21 21:21:00,61.1,48.4,29.59,NNE,23,1.0,3.0,63,0.00,,,0.00,Wunderground v.1.15,2013-09-22 04:21:00,
2013-09-21 21:22:00,60.8,47.7,29.59,NNE,23,0.0,3.0,62,0.00,,,0.00,Wunderground v.1.15,2013-09-22 04:22:00,
2013-09-21 21:26:00,60.3,45.5,29.59,NNE,23,0.0,3.0,58,0.00,,,0.00,Wunderground v.1.15,2013-09-22 04:26:00,
2013-09-21 21:27:00,60.3,45.5,29.59,NNE,23,0.0,3.0,58,0.00,,,0.00,Wunderground v.1.15,2013-09-22 04:27:00,
2013-09-21 21:28:00,60.3,45.5,29.59,NNE,23,0.0,3.0,58,0.00,,,0.00,Wunderground v.1.15,2013-09-22 04:28:00,
2013-09-21 21:31:00,60.5,46.1,29.59,NNE,23,0.0,0.0,59,0.00,,,0.00,Wunderground v.1.15,2013-09-22 04:31:00,
2013-09-21 21:33:00,60.5,45.6,29.59,NNE,23,0.0,0.0,58,0.00,,,0.00,Wunderground v.1.15,2013-09-22 04:33:00,
2013-09-21 21:34:00,60.5,46.1,29.59,NNE,23,2.0,2.0,59,0.00,,,0.00,Wunderground v.1.15,2013-09-22 04:34:00,
2013-09-21 21:36:00,60.6,51.1,29.59,NNE,23,1.0,3.0,71,0.00,,,0.00,Wunderground v.1.15,2013-09-22 04:36:00,
2013-09-21 21:37:00,60.7,51.2,29.59,NNE,23,0.0,3.0,71,0.00,,,0.00,Wunderground v.1.15,2013-09-22 04:37:00,
2013-09-21 21:38:00,60.7,51.6,29.59,NNE,23,1.0,3.0,72,0.00,,,0.00,Wunderground v.1.15,2013-09-22 04:38:00,
2013-09-21 21:40:00,60.5,47.0,29.59,NNE,23,1.0,4.0,61,0.00,,,0.00,Wunderground v.1.15,2013-09-22 04:40:00,
2013-09-21 21:41:00,60.4,47.3,29.59,NNE,23,3.0,3.0,62,0.00,,,0.00,Wunderground v.1.15,2013-09-22 04:41:00,
2013-09-21 21:42:00,60.4,47.3,29.58,NNE,23,1.0,3.0,62,0.00,,,0.00,Wunderground v.1.15,2013-09-22 04:42:00,
2013-09-21 21:43:00,60.6,48.4,29.58,NNE,23,0.0,3.0,64,0.00,,,0.00,Wunderground v.1.15,2013-09-22 04:43:00,
2013-09-21 21:45:00,60.7,47.2,29.58,NNE,23,0.0,3.0,61,0.00,,,0.00,Wunderground v.1.15,2013-09-22 04:45:00,
2013-09-21 21:46:00,60.7,46.3,29.58,NNE,23,1.0,3.0,59,0.00,,,0.00,Wunderground v.1.15,2013-09-22 04:46:00,
2013-09-21 21:47:00,60.8,46.4,29.58,NNE,23,2.0,3.0,59,0.00,,,0.00,Wunderground v.1.15,2013-09-22 04:47:00,
2013-09-21 21:48:00,61.0,50.4,29.58,NNE,23,1.0,3.0,68,0.00,,,0.00,Wunderground v.1.15,2013-09-22 04:48:00,
2013-09-21 21:50:00,61.2,51.7,29.58,NNE,23,1.0,3.0,71,0.00,,,0.00,Wunderground v.1.15,2013-09-22 04:50:00,
2013-09-21 21:51:00,61.2,48.5,29.58,NNE,23,1.0,2.0,63,0.00,,,0.00,Wunderground v.1.15,2013-09-22 04:51:00,
2013-09-21 21:52:00,61.2,47.2,29.58,NNE,23,1.0,2.0,60,0.00,,,0.00,Wunderground v.1.15,2013-09-22 04:52:00,
2013-09-21 21:53:00,61.2,48.5,29.58,NNE,23,2.0,2.0,63,0.00,,,0.00,Wunderground v.1.15,2013-09-22 04:53:00,
2013-09-21 21:55:00,61.2,47.6,29.58,NNE,23,0.0,2.0,61,0.00,,,0.00,Wunderground v.1.15,2013-09-22 04:55:00,
2013-09-21 21:57:00,61.2,48.9,29.58,NNE,23,0.0,2.0,64,0.00,,,0.00,Wunderground v.1.15,2013-09-22 04:57:00,
2013-09-21 21:58:00,61.2,48.1,29.58,NNE,23,1.0,2.0,62,0.00,,,0.00,Wunderground v.1.15,2013-09-22 04:58:00,
2013-09-21 22:00:00,61.3,47.7,29.58,NNE,23,0.0,1.0,61,0.00,,,0.00,Wunderground v.1.15,2013-09-22 05:00:00,
2013-09-21 22:02:00,61.4,47.4,29.58,NNE,23,2.0,3.0,60,0.00,,,0.00,Wunderground v.1.15,2013-09-22 05:02:00,
2013-09-21 22:03:00,61.5,49.2,29.58,NNE,23,2.0,3.0,64,0.00,,,0.00,Wunderground v.1.15,2013-09-22 05:03:00,
2013-09-21 22:04:00,61.5,46.6,29.58,NNE,23,0.0,3.0,58,0.00,,,0.00,Wunderground v.1.15,2013-09-22 05:04:00,
2013-09-21 22:05:00,61.5,46.1,29.58,NNE,23,0.0,3.0,57,0.00,,,0.00,Wunderground v.1.15,2013-09-22 05:05:00,
2013-09-21 22:07:00,61.6,42.8,29.58,NNE,23,2.0,4.0,50,0.00,,,0.00,Wunderground v.1.15,2013-09-22 05:07:00,
2013-09-21 22:08:00,61.7,42.9,29.58,NNE,23,2.0,4.0,50,0.00,,,0.00,Wunderground v.1.15,2013-09-22 05:08:00,
2013-09-21 22:09:00,61.9,44.1,29.58,NNE,23,2.0,4.0,52,0.00,,,0.00,Wunderground v.1.15,2013-09-22 05:09:00,
2013-09-21 22:10:00,62.2,47.7,29.58,NNE,23,3.0,3.0,59,0.00,,,0.00,Wunderground v.1.15,2013-09-22 05:10:00,
2013-09-21 22:12:00,62.5,43.6,29.57,NNE,23,2.0,4.0,50,0.00,,,0.00,Wunderground v.1.15,2013-09-22 05:12:00,
2013-09-21 22:13:00,62.6,46.7,29.58,NNE,23,2.0,4.0,56,0.00,,,0.00,Wunderground v.1.15,2013-09-22 05:13:00,
2013-09-21 22:14:00,62.7,46.8,29.57,NNE,23,3.0,4.0,56,0.00,,,0.00,Wunderground v.1.15,2013-09-22 05:14:00,
2013-09-21 22:15:00,62.7,44.8,29.57,NNE,23,2.0,4.0,52,0.00,,,0.00,Wunderground v.1.15,2013-09-22 05:15:00,
2013-09-21 22:17:00,62.9,45.5,29.57,NNE,23,0.0,4.0,53,0.00,,,0.00,Wunderground v.1.15,2013-09-22 05:17:00,
2013-09-21 22:18:00,62.9,47.4,29.57,NNE,23,0.0,4.0,57,0.00,,,0.00,Wunderground v.1.15,2013-09-22 05:18:00,
2013-09-21 22:19:00,62.9,47.0,29.57,NNE,23,2.0,4.0,56,0.00,,,0.00,Wunderground v.1.15,2013-09-22 05:19:00,
2013-09-21 22:21:00,62.9,47.4,29.57,NNE,23,2.0,5.0,57,0.00,,,0.00,Wunderground v.1.15,2013-09-22 05:21:00,
2013-09-21 22:23:00,62.7,45.8,29.57,NNE,23,3.0,5.0,54,0.00,,,0.00,Wunderground v.1.15,2013-09-22 05:23:00,
2013-09-21 22:24:00,62.6,46.2,29.57,NNE,23,3.0,5.0,55,0.00,,,0.00,Wunderground v.1.15,2013-09-22 05:24:00,
2013-09-21 22:26:00,62.6,47.1,29.57,NNE,23,3.0,5.0,57,0.00,,,0.00,Wunderground v.1.15,2013-09-22 05:26:00,
2013-09-21 22:28:00,62.3,45.9,29.57,NNE,23,3.0,5.0,55,0.00,,,0.00,Wunderground v.1.15,2013-09-22 05:28:00,
2013-09-21 22:29:00,62.2,45.8,29.57,NNE,23,2.0,5.0,55,0.00,,,0.00,Wunderground v.1.15,2013-09-22 05:29:00,
2013-09-21 22:30:00,61.9,46.5,29.57,NNE,23,4.0,4.0,57,0.00,,,0.00,Wunderground v.1.15,2013-09-22 05:30:00,
2013-09-21 22:31:00,61.6,43.8,29.57,North,5,4.0,6.0,52,0.00,,,0.00,Wunderground v.1.15,2013-09-22 05:31:00,
2013-09-21 22:34:00,61.3,44.5,29.57,North,5,4.0,6.0,54,0.00,,,0.00,Wunderground v.1.15,2013-09-22 05:34:00,
2013-09-21 22:35:00,61.0,44.2,29.57,NNW,343,5.0,7.0,54,0.00,,,0.00,Wunderground v.1.15,2013-09-22 05:35:00,
2013-09-21 22:36:00,60.9,46.9,29.57,NNW,338,6.0,7.0,60,0.00,,,0.00,Wunderground v.1.15,2013-09-22 05:36:00,
2013-09-21 22:39:00,61.0,47.4,29.57,NNW,329,5.0,7.0,61,0.00,,,0.00,Wunderground v.1.15,2013-09-22 05:39:00,
2013-09-21 22:40:00,61.0,44.7,29.57,NNW,329,4.0,7.0,55,0.00,,,0.00,Wunderground v.1.15,2013-09-22 05:40:00,
2013-09-21 22:41:00,61.1,46.2,29.57,NNW,329,3.0,7.0,58,0.00,,,0.00,Wunderground v.1.15,2013-09-22 05:41:00,
2013-09-21 22:44:00,60.3,47.2,29.57,NNW,329,3.0,7.0,62,0.00,,,0.00,Wunderground v.1.15,2013-09-22 05:44:00,
2013-09-21 22:45:00,60.2,49.2,29.57,NNW,329,2.0,7.0,67,0.00,,,0.00,Wunderground v.1.15,2013-09-22 05:45:00,
2013-09-21 22:46:00,59.9,48.9,29.57,NNW,329,1.0,7.0,67,0.00,,,0.00,Wunderground v.1.15,2013-09-22 05:46:00,
2013-09-21 22:49:00,59.8,51.1,29.57,NNW,329,2.0,7.0,73,0.00,,,0.00,Wunderground v.1.15,2013-09-22 05:49:00,
2013-09-21 22:50:00,59.8,51.5,29.57,NNW,329,4.0,7.0,74,0.00,,,0.00,Wunderground v.1.15,2013-09-22 05:50:00,
2013-09-21 22:51:00,59.7,49.9,29.57,NNW,329,3.0,4.0,70,0.00,,,0.00,Wunderground v.1.15,2013-09-22 05:51:00,
2013-09-21 22:52:00,59.7,49.9,29.57,NNW,329,2.0,4.0,70,0.00,,,0.00,Wunderground v.1.15,2013-09-22 05:52:00,
2013-09-21 22:54:00,59.8,49.2,29.57,NNW,329,3.0,4.0,68,0.00,,,0.00,Wunderground v.1.15,2013-09-22 05:54:00,
2013-09-21 22:55:00,59.7,47.1,29.57,NNW,329,3.0,4.0,63,0.00,,,0.00,Wunderground v.1.15,2013-09-22 05:55:00,
2013-09-21 22:57:00,59.8,48.4,29.57,NNW,329,2.0,4.0,66,0.00,,,0.00,Wunderground v.1.15,2013-09-22 05:57:00,
2013-09-21 22:59:00,60.1,49.5,29.57,NNW,329,1.0,5.0,68,0.00,,,0.00,Wunderground v.1.15,2013-09-22 05:59:00,
2013-09-21 23:00:00,60.1,47.5,29.57,NNW,329,3.0,3.0,63,0.00,,,0.00,Wunderground v.1.15,2013-09-22 06:00:00,
2013-09-21 23:02:00,60.2,48.4,29.57,NNW,329,4.0,4.0,65,0.00,,,0.00,Wunderground v.1.15,2013-09-22 06:02:00,
2013-09-21 23:04:00,60.3,43.6,29.57,NNW,329,2.0,5.0,54,0.00,,,0.00,Wunderground v.1.15,2013-09-22 06:04:00,
2013-09-21 23:05:00,60.3,43.6,29.57,NNW,329,1.0,5.0,54,0.00,,,0.00,Wunderground v.1.15,2013-09-22 06:05:00,
2013-09-21 23:07:00,60.1,43.4,29.57,NNW,329,3.0,5.0,54,0.00,,,0.00,Wunderground v.1.15,2013-09-22 06:07:00,
2013-09-21 23:08:00,60.1,43.9,29.57,NNW,329,4.0,5.0,55,0.00,,,0.00,Wunderground v.1.15,2013-09-22 06:08:00,
2013-09-21 23:10:00,60.1,42.9,29.57,NNW,329,2.0,5.0,53,0.00,,,0.00,Wunderground v.1.15,2013-09-22 06:10:00,
2013-09-21 23:11:00,60.1,43.9,29.57,NNW,329,3.0,3.0,55,0.00,,,0.00,Wunderground v.1.15,2013-09-22 06:11:00,
2013-09-21 23:13:00,60.0,42.3,29.57,NNW,329,4.0,5.0,52,0.00,,,0.00,Wunderground v.1.15,2013-09-22 06:13:00,
2013-09-21 23:15:00,59.6,41.4,29.57,NNW,329,4.0,5.0,51,0.00,,,0.00,Wunderground v.1.15,2013-09-22 06:15:00,
2013-09-21 23:16:00,59.3,41.2,29.58,NNW,329,3.0,5.0,51,0.00,,,0.00,Wunderground v.1.15,2013-09-22 06:16:00,
2013-09-21 23:18:00,59.2,41.6,29.58,NNW,329,3.0,5.0,52,0.00,,,0.00,Wunderground v.1.15,2013-09-22 06:18:00,
2013-09-21 23:19:00,59.1,41.5,29.58,NNW,328,4.0,5.0,52,0.00,,,0.00,Wunderground v.1.15,2013-09-22 06:19:00,
2013-09-21 23:20:00,59.0,41.9,29.58,NW,320,3.0,3.0,53,0.00,,,0.00,Wunderground v.1.15,2013-09-22 06:20:00,
2013-09-21 23:21:00,58.9,41.8,29.58,NW,320,3.0,5.0,53,0.00,,,0.00,Wunderground v.1.15,2013-09-22 06:21:00,
2013-09-21 23:23:00,58.7,42.6,29.58,NW,320,1.0,5.0,55,0.00,,,0.00,Wunderground v.1.15,2013-09-22 06:23:00,
2013-09-21 23:24:00,58.5,42.4,29.58,NW,320,0.0,5.0,55,0.00,,,0.00,Wunderground v.1.15,2013-09-22 06:24:00,
2013-09-21 23:25:00,58.4,42.8,29.58,NW,320,0.0,5.0,56,0.00,,,0.00,Wunderground v.1.15,2013-09-22 06:25:00,
2013-09-21 23:26:00,58.3,44.0,29.58,NW,320,2.0,5.0,59,0.00,,,0.00,Wunderground v.1.15,2013-09-22 06:26:00,
2013-09-21 23:28:00,58.3,44.0,29.58,NW,320,2.0,5.0,59,0.00,,,0.00,Wunderground v.1.15,2013-09-22 06:28:00,
2013-09-21 23:29:00,58.4,44.1,29.58,NW,320,1.0,5.0,59,0.00,,,0.00,Wunderground v.1.15,2013-09-22 06:29:00,
2013-09-21 23:30:00,58.5,45.9,29.58,NW,320,3.0,3.0,63,0.00,,,0.00,Wunderground v.1.15,2013-09-22 06:30:00,
2013-09-21 23:31:00,58.5,43.3,29.58,NW,320,3.0,3.0,57,0.00,,,0.00,Wunderground v.1.15,2013-09-22 06:31:00,
2013-09-21 23:32:00,58.5,44.2,29.58,NW,320,5.0,5.0,59,0.00,,,0.00,Wunderground v.1.15,2013-09-22 06:32:00,
2013-09-21 23:34:00,58.5,43.3,29.58,NW,317,5.0,6.0,57,0.00,,,0.00,Wunderground v.1.15,2013-09-22 06:34:00,
2013-09-21 23:35:00,58.7,42.6,29.58,NW,309,5.0,7.0,55,0.00,,,0.00,Wunderground v.1.15,2013-09-22 06:35:00,
2013-09-21 23:36:00,59.0,42.4,29.58,NW,305,3.0,7.0,54,0.00,,,0.00,Wunderground v.1.15,2013-09-22 06:36:00,
2013-09-21 23:37:00,59.1,42.9,29.58,NW,305,4.0,7.0,55,0.00,,,0.00,Wunderground v.1.15,2013-09-22 06:37:00,
2013-09-21 23:39:00,59.2,43.5,29.58,WNW,302,3.0,7.0,56,0.00,,,0.00,Wunderground v.1.15,2013-09-22 06:39:00,
2013-09-21 23:40:00,59.3,42.6,29.58,WNW,302,4.0,7.0,54,0.00,,,0.00,Wunderground v.1.15,2013-09-22 06:40:00,
2013-09-21 23:41:00,59.4,43.7,29.58,WNW,302,5.0,5.0,56,0.00,,,0.00,Wunderground v.1.15,2013-09-22 06:41:00,
2013-09-21 23:42:00,59.4,43.7,29.58,WNW,302,4.0,5.0,56,0.00,,,0.00,Wunderground v.1.15,2013-09-22 06:42:00,
2013-09-21 23:44:00,59.3,46.3,29.58,WNW,302,0.0,5.0,62,0.00,,,0.00,Wunderground v.1.15,2013-09-22 06:44:00,
2013-09-21 23:45:00,59.0,44.2,29.58,WNW,302,0.0,5.0,58,0.00,,,0.00,Wunderground v.1.15,2013-09-22 06:45:00,
2013-09-21 23:46:00,58.6,44.3,29.58,WNW,302,2.0,5.0,59,0.00,,,0.00,Wunderground v.1.15,2013-09-22 06:46:00,
2013-09-21 23:47:00,58.6,46.9,29.58,WNW,302,2.0,5.0,65,0.00,,,0.00,Wunderground v.1.15,2013-09-22 06:47:00,
2013-09-21 23:49:00,58.5,47.6,29.58,WNW,302,5.0,5.0,67,0.00,,,0.00,Wunderground v.1.15,2013-09-22 06:49:00,
2013-09-21 23:51:00,58.4,43.7,29.58,WNW,302,7.0,7.0,58,0.00,,,0.00,Wunderground v.1.15,2013-09-22 06:51:00,
2013-09-21 23:52:00,58.5,42.8,29.58,WNW,299,4.0,7.0,56,0.00,,,0.00,Wunderground v.1.15,2013-09-22 06:52:00,
2013-09-21 23:56:00,58.5,47.2,29.58,WNW,299,1.0,7.0,66,0.00,,,0.00,Wunderground v.1.15,2013-09-22 06:56:00,
2013-09-21 23:57:00,58.3,46.6,29.58,WNW,299,2.0,7.0,65,0.00,,,0.00,Wunderground v.1.15,2013-09-22 06:57:00,
2013-09-21 23:58:00,58.2,46.5,29.58,WNW,299,3.0,7.0,65,0.00,,,0.00,Wunderground v.1.15,2013-09-22 06:58:00,